Time,TemperatureF,DewpointF,PressureIn,WindDirection,WindDirectionDegrees,WindSpeedMPH,WindSpeedGustMPH,Humidity,HourlyPrecipIn,Conditions,Clouds,dailyrainin,SoftwareType,DateUTC
2013-09-22 00:00:00,59.1,52.2,29.92,ESE,111,2.0,3.0,78,0.00,,,0.00,Wunderground v.1.15,2013-09-22 04:00:00,
2013-09-22 00:01:00,59.0,52.1,29.91,ESE,112,5.0,5.0,78,0.00,,,0.00,Wunderground v.1.15,2013-09-22 04:01:00,
2013-09-22 00:02:00,59.0,52.1,29.91,ENE,76,4.0,5.0,78,0.00,,,0.00,Wunderground v.1.15,2013-09-22 04:02:00,
2013-09-22 00:03:00,59.0,51.8,29.91,ESE,104,5.0,5.0,77,0.00,,,0.00,Wunderground v.1.15,2013-09-22 04:03:00,
2013-09-22 00:06:00,58.9,52.1,29.91,ESE,109,2.0,5.0,78,0.00,,,0.00,Wunderground v.1.15,2013-09-22 04:06:00,
2013-09-22 00:07:00,58.8,52.0,29.91,ESE,109,1.0,5.0,78,0.00,,,0.00,Wunderground v.1.15,2013-09-22 04:07:00,
2013-09-22 00:08:00,58.8,52.0,29.91,ESE,109,3.0,5.0,78,0.00,,,0.00,Wunderground v.1.15,2013-09-22 04:08:00,
2013-09-22 00:12:00,58.6,52.1,29.92,SSE,157,1.0,2.0,79,0.00,,,0.00,Wunderground v.1.15,2013-09-22 04:12:00,
2013-09-22 00:13:00,58.5,52.0,29.91,SSE,156,0.0,2.0,79,0.00,,,0.00,Wunderground v.1.15,2013-09-22 04:13:00,
2013-09-22 00:16:00,58.3,51.8,29.92,East,98,4.0,4.0,79,0.00,,,0.00,Wunderground v.1.15,2013-09-22 04:16:00,
2013-09-22 00:19:00,58.2,51.7,29.91,East,92,1.0,4.0,79,0.00,,,0.00,Wunderground v.1.15,2013-09-22 04:19:00,
2013-09-22 00:21:00,58.1,51.6,29.92,East,101,2.0,6.0,79,0.00,,,0.00,Wunderground v.1.15,2013-09-22 04:21:00,
2013-09-22 00:22:00,58.1,51.3,29.92,East,97,0.0,6.0,78,0.00,,,0.00,Wunderground v.1.15,2013-09-22 04:22:00,
2013-09-22 00:26:00,57.9,51.4,29.91,East,88,2.0,6.0,79,0.00,,,0.00,Wunderground v.1.15,2013-09-22 04:26:00,
2013-09-22 00:27:00,57.9,51.4,29.91,East,88,0.0,6.0,79,0.00,,,0.00,Wunderground v.1.15,2013-09-22 04:27:00,
2013-09-22 00:28:00,57.8,51.7,29.92,ESE,109,4.0,6.0,80,0.00,,,0.00,Wunderground v.1.15,2013-09-22 04:28:00,
2013-09-22 00:31:00,57.7,51.2,29.92,ESE,106,3.0,5.0,79,0.00,,,0.00,Wunderground v.1.15,2013-09-22 04:31:00,
2013-09-22 00:33:00,57.6,51.1,29.92,East,83,1.0,5.0,79,0.00,,,0.00,Wunderground v.1.15,2013-09-22 04:33:00,
2013-09-22 00:34:00,57.6,51.1,29.92,ENE,77,0.0,5.0,79,0.00,,,0.00,Wunderground v.1.15,2013-09-22 04:34:00,
2013-09-22 00:35:00,57.6,51.1,29.92,ENE,77,0.0,5.0,79,0.00,,,0.00,Wunderground v.1.15,2013-09-22 04:35:00,
2013-09-22 00:36:00,57.5,51.4,29.92,ESE,119,4.0,5.0,80,0.00,,,0.00,Wunderground v.1.15,2013-09-22 04:36:00,
2013-09-22 00:38:00,57.5,51.0,29.92,ESE,103,2.0,5.0,79,0.00,,,0.00,Wunderground v.1.15,2013-09-22 04:38:00,
2013-09-22 00:40:00,57.4,50.9,29.92,ESE,102,2.0,2.0,79,0.00,,,0.00,Wunderground v.1.15,2013-09-22 04:40:00,
2013-09-22 00:41:00,57.3,50.8,29.92,ESE,106,4.0,4.0,79,0.00,,,0.00,Wunderground v.1.15,2013-09-22 04:41:00,
2013-09-22 00:43:00,57.3,50.8,29.92,SE,137,3.0,4.0,79,0.00,,,0.00,Wunderground v.1.15,2013-09-22 04:43:00,
2013-09-22 00:44:00,57.2,50.7,29.92,ESE,121,3.0,4.0,79,0.00,,,0.00,Wunderground v.1.15,2013-09-22 04:44:00,
2013-09-22 00:45:00,57.2,50.7,29.92,ESE,118,0.0,4.0,79,0.00,,,0.00,Wunderground v.1.15,2013-09-22 04:45:00,
2013-09-22 00:48:00,57.1,50.6,29.92,NE,41,4.0,5.0,79,0.00,,,0.00,Wunderground v.1.15,2013-09-22 04:48:00,
2013-09-22 00:49:00,57.1,50.6,29.92,East,79,6.0,6.0,79,0.00,,,0.00,Wunderground v.1.15,2013-09-22 04:49:00,
2013-09-22 00:50:00,57.0,50.5,29.92,ESE,105,0.0,3.0,79,0.00,,,0.00,Wunderground v.1.15,2013-09-22 04:50:00,
2013-09-22 00:51:00,56.9,50.5,29.92,ESE,109,4.0,4.0,79,0.00,,,0.00,Wunderground v.1.15,2013-09-22 04:51:00,
2013-09-22 00:56:00,56.7,50.3,29.92,ESE,109,2.0,4.0,79,0.00,,,0.00,Wunderground v.1.15,2013-09-22 04:56:00,
2013-09-22 00:57:00,56.7,50.3,29.93,East,96,3.0,4.0,79,0.00,,,0.00,Wunderground v.1.15,2013-09-22 04:57:00,
2013-09-22 00:58:00,56.7,50.3,29.93,East,92,5.0,5.0,79,0.00,,,0.00,Wunderground v.1.15,2013-09-22 04:58:00,
2013-09-22 01:02:00,56.6,50.2,29.93,East,96,1.0,6.0,79,0.00,,,0.00,Wunderground v.1.15,2013-09-22 05:02:00,
2013-09-22 01:03:00,56.6,50.2,29.93,East,96,0.0,6.0,79,0.00,,,0.00,Wunderground v.1.15,2013-09-22 05:03:00,
2013-09-22 01:04:00,56.5,50.4,29.93,East,96,0.0,6.0,80,0.00,,,0.00,Wunderground v.1.15,2013-09-22 05:04:00,
2013-09-22 01:08:00,56.4,50.3,29.93,East,101,0.0,6.0,80,0.00,,,0.00,Wunderground v.1.15,2013-09-22 05:08:00,
2013-09-22 01:09:00,56.4,50.6,29.93,East,101,1.0,6.0,81,0.00,,,0.00,Wunderground v.1.15,2013-09-22 05:09:00,
2013-09-22 01:10:00,56.3,50.5,29.93,East,101,0.0,1.0,81,0.00,,,0.00,Wunderground v.1.15,2013-09-22 05:10:00,
2013-09-22 01:13:00,56.3,50.2,29.93,East,88,2.0,4.0,80,0.00,,,0.00,Wunderground v.1.15,2013-09-22 05:13:00,
2013-09-22 01:15:00,56.2,50.1,29.93,ENE,68,5.0,5.0,80,0.00,,,0.00,Wunderground v.1.15,2013-09-22 05:15:00,
2013-09-22 01:16:00,56.2,50.1,29.93,SE,127,2.0,5.0,80,0.00,,,0.00,Wunderground v.1.15,2013-09-22 05:16:00,
2013-09-22 01:18:00,56.2,50.1,29.93,East,101,0.0,5.0,80,0.00,,,0.00,Wunderground v.1.15,2013-09-22 05:18:00,
2013-09-22 01:22:00,56.1,49.7,29.93,SE,126,0.0,5.0,79,0.00,,,0.00,Wunderground v.1.15,2013-09-22 05:22:00,
2013-09-22 01:23:00,56.1,49.7,29.93,ESE,105,2.0,5.0,79,0.00,,,0.00,Wunderground v.1.15,2013-09-22 05:23:00,
2013-09-22 01:24:00,56.0,49.6,29.93,ESE,105,2.0,5.0,79,0.00,,,0.00,Wunderground v.1.15,2013-09-22 05:24:00,
2013-09-22 01:27:00,55.9,49.1,29.93,ESE,104,2.0,5.0,78,0.00,,,0.00,Wunderground v.1.15,2013-09-22 05:27:00,
2013-09-22 01:28:00,55.9,49.1,29.93,ESE,106,1.0,5.0,78,0.00,,,0.00,Wunderground v.1.15,2013-09-22 05:28:00,
2013-09-22 01:29:00,55.9,49.1,29.93,ESE,106,0.0,5.0,78,0.00,,,0.00,Wunderground v.1.15,2013-09-22 05:29:00,
2013-09-22 01:30:00,55.8,49.0,29.93,ESE,105,0.0,2.0,78,0.00,,,0.00,Wunderground v.1.15,2013-09-22 05:30:00,
2013-09-22 01:34:00,55.7,48.9,29.94,East,86,0.0,4.0,78,0.00,,,0.00,Wunderground v.1.15,2013-09-22 05:34:00,
2013-09-22 01:36:00,55.6,48.5,29.94,South,178,3.0,4.0,77,0.00,,,0.00,Wunderground v.1.15,2013-09-22 05:36:00,
2013-09-22 01:37:00,55.6,48.5,29.94,ESE,111,4.0,4.0,77,0.00,,,0.00,Wunderground v.1.15,2013-09-22 05:37:00,
2013-09-22 01:39:00,55.6,48.5,29.94,ESE,103,0.0,4.0,77,0.00,,,0.00,Wunderground v.1.15,2013-09-22 05:39:00,
2013-09-22 01:40:00,55.6,48.5,29.94,ESE,109,5.0,5.0,77,0.00,,,0.00,Wunderground v.1.15,2013-09-22 05:40:00,
2013-09-22 01:44:00,55.5,48.1,29.94,East,98,0.0,5.0,76,0.00,,,0.00,Wunderground v.1.15,2013-09-22 05:44:00,
2013-09-22 01:45:00,55.5,48.4,29.94,East,98,0.0,5.0,77,0.00,,,0.00,Wunderground v.1.15,2013-09-22 05:45:00,
2013-09-22 01:48:00,55.4,48.0,29.94,ENE,77,1.0,5.0,76,0.00,,,0.00,Wunderground v.1.15,2013-09-22 05:48:00,
2013-09-22 01:49:00,55.4,48.0,29.94,East,95,0.0,5.0,76,0.00,,,0.00,Wunderground v.1.15,2013-09-22 05:49:00,
2013-09-22 01:50:00,55.3,47.9,29.94,East,95,2.0,2.0,76,0.00,,,0.00,Wunderground v.1.15,2013-09-22 05:50:00,
2013-09-22 01:53:00,55.3,47.9,29.94,ESE,111,4.0,5.0,76,0.00,,,0.00,Wunderground v.1.15,2013-09-22 05:53:00,
2013-09-22 01:55:00,55.3,47.9,29.94,East,82,4.0,5.0,76,0.00,,,0.00,Wunderground v.1.15,2013-09-22 05:55:00,
2013-09-22 01:57:00,55.2,47.8,29.94,ESE,121,2.0,5.0,76,0.00,,,0.00,Wunderground v.1.15,2013-09-22 05:57:00,
2013-09-22 01:58:00,55.2,47.8,29.94,ESE,115,2.0,5.0,76,0.00,,,0.00,Wunderground v.1.15,2013-09-22 05:58:00,
2013-09-22 02:00:00,55.2,47.4,29.94,ESE,103,4.0,4.0,75,0.00,,,0.00,Wunderground v.1.15,2013-09-22 06:00:00,
2013-09-22 02:01:00,55.2,47.4,29.94,East,96,0.0,4.0,75,0.00,,,0.00,Wunderground v.1.15,2013-09-22 06:01:00,
2013-09-22 02:02:00,55.2,47.4,29.94,East,101,1.0,4.0,75,0.00,,,0.00,Wunderground v.1.15,2013-09-22 06:02:00,
2013-09-22 02:03:00,55.2,47.4,29.94,SE,124,4.0,5.0,75,0.00,,,0.00,Wunderground v.1.15,2013-09-22 06:03:00,
2013-09-22 02:05:00,55.2,47.4,29.94,ESE,105,0.0,5.0,75,0.00,,,0.00,Wunderground v.1.15,2013-09-22 06:05:00,
2013-09-22 02:06:00,55.1,47.7,29.94,ESE,105,0.0,5.0,76,0.00,,,0.00,Wunderground v.1.15,2013-09-22 06:06:00,
2013-09-22 02:07:00,55.1,47.7,29.94,ESE,105,0.0,5.0,76,0.00,,,0.00,Wunderground v.1.15,2013-09-22 06:07:00,
2013-09-22 02:08:00,55.1,47.7,29.94,ESE,106,4.0,5.0,76,0.00,,,0.00,Wunderground v.1.15,2013-09-22 06:08:00,
2013-09-22 02:09:00,55.1,47.3,29.94,ESE,112,5.0,7.0,75,0.00,,,0.00,Wunderground v.1.15,2013-09-22 06:09:00,
2013-09-22 02:10:00,55.1,47.0,29.94,ENE,69,1.0,4.0,74,0.00,,,0.00,Wunderground v.1.15,2013-09-22 06:10:00,
2013-09-22 02:11:00,55.1,47.3,29.94,ENE,71,1.0,4.0,75,0.00,,,0.00,Wunderground v.1.15,2013-09-22 06:11:00,
2013-09-22 02:12:00,55.1,47.3,29.94,East,85,2.0,4.0,75,0.00,,,0.00,Wunderground v.1.15,2013-09-22 06:12:00,
2013-09-22 02:13:00,55.1,47.3,29.94,ESE,106,4.0,4.0,75,0.00,,,0.00,Wunderground v.1.15,2013-09-22 06:13:00,
2013-09-22 02:14:00,55.1,47.3,29.94,SE,130,3.0,4.0,75,0.00,,,0.00,Wunderground v.1.15,2013-09-22 06:14:00,
2013-09-22 02:15:00,55.1,47.3,29.94,SE,130,2.0,4.0,75,0.00,,,0.00,Wunderground v.1.15,2013-09-22 06:15:00,
2013-09-22 02:17:00,55.0,47.6,29.94,SE,130,0.0,4.0,76,0.00,,,0.00,Wunderground v.1.15,2013-09-22 06:17:00,
2013-09-22 02:18:00,55.0,47.6,29.94,SE,130,1.0,4.0,76,0.00,,,0.00,Wunderground v.1.15,2013-09-22 06:18:00,
2013-09-22 02:19:00,55.0,47.2,29.94,SE,129,0.0,4.0,75,0.00,,,0.00,Wunderground v.1.15,2013-09-22 06:19:00,
2013-09-22 02:20:00,55.0,47.2,29.94,SE,129,2.0,2.0,75,0.00,,,0.00,Wunderground v.1.15,2013-09-22 06:20:00,
2013-09-22 02:23:00,55.0,47.2,29.94,SE,126,0.0,5.0,75,0.00,,,0.00,Wunderground v.1.15,2013-09-22 06:23:00,
2013-09-22 02:24:00,55.0,47.2,29.94,SE,126,0.0,5.0,75,0.00,,,0.00,Wunderground v.1.15,2013-09-22 06:24:00,
2013-09-22 02:25:00,54.9,47.1,29.94,ESE,119,2.0,5.0,75,0.00,,,0.00,Wunderground v.1.15,2013-09-22 06:25:00,
2013-09-22 02:28:00,54.9,47.1,29.95,ESE,119,0.0,5.0,75,0.00,,,0.00,Wunderground v.1.15,2013-09-22 06:28:00,
2013-09-22 02:29:00,54.9,47.1,29.95,ESE,117,1.0,5.0,75,0.00,,,0.00,Wunderground v.1.15,2013-09-22 06:29:00,
2013-09-22 02:30:00,54.8,47.0,29.95,ESE,119,0.0,1.0,75,0.00,,,0.00,Wunderground v.1.15,2013-09-22 06:30:00,
2013-09-22 02:33:00,54.8,46.7,29.95,ENE,75,0.0,6.0,74,0.00,,,0.00,Wunderground v.1.15,2013-09-22 06:33:00,
2013-09-22 02:34:00,54.8,47.0,29.95,ENE,75,0.0,6.0,75,0.00,,,0.00,Wunderground v.1.15,2013-09-22 06:34:00,
2013-09-22 02:35:00,54.8,47.0,29.95,ESE,104,3.0,6.0,75,0.00,,,0.00,Wunderground v.1.15,2013-09-22 06:35:00,
2013-09-22 02:39:00,54.8,46.7,29.95,ESE,107,2.0,6.0,74,0.00,,,0.00,Wunderground v.1.15,2013-09-22 06:39:00,
2013-09-22 02:40:00,54.8,47.0,29.95,ESE,107,1.0,1.0,75,0.00,,,0.00,Wunderground v.1.15,2013-09-22 06:40:00,
2013-09-22 02:44:00,54.8,46.7,29.95,ESE,113,1.0,4.0,74,0.00,,,0.00,Wunderground v.1.15,2013-09-22 06:44:00,
2013-09-22 02:45:00,54.8,46.7,29.95,ESE,113,0.0,4.0,74,0.00,,,0.00,Wunderground v.1.15,2013-09-22 06:45:00,
2013-09-22 02:46:00,54.8,46.7,29.95,ESE,113,0.0,4.0,74,0.00,,,0.00,Wunderground v.1.15,2013-09-22 06:46:00,
2013-09-22 02:50:00,54.8,46.7,29.95,ESE,116,1.0,2.0,74,0.00,,,0.00,Wunderground v.1.15,2013-09-22 06:50:00,
2013-09-22 02:51:00,54.8,46.7,29.95,ESE,117,2.0,3.0,74,0.00,,,0.00,Wunderground v.1.15,2013-09-22 06:51:00,
2013-09-22 02:55:00,54.8,47.0,29.95,ESE,119,5.0,5.0,75,0.00,,,0.00,Wunderground v.1.15,2013-09-22 06:55:00,
2013-09-22 02:56:00,54.8,46.7,29.95,ESE,114,1.0,5.0,74,0.00,,,0.00,Wunderground v.1.15,2013-09-22 06:56:00,
2013-09-22 02:57:00,54.8,46.7,29.95,ESE,113,1.0,5.0,74,0.00,,,0.00,Wunderground v.1.15,2013-09-22 06:57:00,
2013-09-22 03:00:00,54.7,46.6,29.95,ESE,103,2.0,3.0,74,0.00,,,0.00,Wunderground v.1.15,2013-09-22 07:00:00,
2013-09-22 03:01:00,54.7,46.6,29.95,SE,132,3.0,5.0,74,0.00,,,0.00,Wunderground v.1.15,2013-09-22 07:01:00,
2013-09-22 03:03:00,54.7,46.6,29.95,SE,135,0.0,6.0,74,0.00,,,0.00,Wunderground v.1.15,2013-09-22 07:03:00,
2013-09-22 03:05:00,54.6,46.5,29.95,SE,135,0.0,6.0,74,0.00,,,0.00,Wunderground v.1.15,2013-09-22 07:05:00,
2013-09-22 03:06:00,54.6,46.5,29.95,SE,135,0.0,6.0,74,0.00,,,0.00,Wunderground v.1.15,2013-09-22 07:06:00,
2013-09-22 03:09:00,54.5,46.4,29.95,ESE,123,2.0,6.0,74,0.00,,,0.00,Wunderground v.1.15,2013-09-22 07:09:00,
2013-09-22 03:10:00,54.5,46.4,29.95,ESE,107,1.0,5.0,74,0.00,,,0.00,Wunderground v.1.15,2013-09-22 07:10:00,
2013-09-22 03:11:00,54.5,46.4,29.95,ESE,115,0.0,5.0,74,0.00,,,0.00,Wunderground v.1.15,2013-09-22 07:11:00,
2013-09-22 03:15:00,54.5,46.4,29.95,ESE,104,2.0,5.0,74,0.00,,,0.00,Wunderground v.1.15,2013-09-22 07:15:00,
2013-09-22 03:16:00,54.5,46.4,29.95,ESE,103,0.0,5.0,74,0.00,,,0.00,Wunderground v.1.15,2013-09-22 07:16:00,
2013-09-22 03:20:00,54.4,46.6,29.95,ESE,113,0.0,1.0,75,0.00,,,0.00,Wunderground v.1.15,2013-09-22 07:20:00,
2013-09-22 03:21:00,54.3,46.5,29.95,ESE,113,0.0,1.0,75,0.00,,,0.00,Wunderground v.1.15,2013-09-22 07:21:00,
2013-09-22 03:26:00,54.1,46.3,29.95,ESE,113,3.0,3.0,75,0.00,,,0.00,Wunderground v.1.15,2013-09-22 07:26:00,
2013-09-22 03:27:00,54.1,46.3,29.95,East,98,4.0,6.0,75,0.00,,,0.00,Wunderground v.1.15,2013-09-22 07:27:00,
2013-09-22 03:31:00,54.2,46.8,29.96,ENE,78,0.0,1.0,76,0.00,,,0.00,Wunderground v.1.15,2013-09-22 07:31:00,
2013-09-22 03:32:00,54.2,46.8,29.96,ENE,78,0.0,1.0,76,0.00,,,0.00,Wunderground v.1.15,2013-09-22 07:32:00,
2013-09-22 03:37:00,54.2,46.4,29.96,ESE,102,0.0,7.0,75,0.00,,,0.00,Wunderground v.1.15,2013-09-22 07:37:00,
2013-09-22 03:38:00,54.1,46.7,29.96,East,101,2.0,7.0,76,0.00,,,0.00,Wunderground v.1.15,2013-09-22 07:38:00,
2013-09-22 03:42:00,54.1,46.7,29.96,East,101,0.0,2.0,76,0.00,,,0.00,Wunderground v.1.15,2013-09-22 07:42:00,
2013-09-22 03:43:00,54.1,46.3,29.96,East,101,0.0,2.0,75,0.00,,,0.00,Wunderground v.1.15,2013-09-22 07:43:00,
2013-09-22 03:44:00,54.1,46.3,29.96,East,101,0.0,2.0,75,0.00,,,0.00,Wunderground v.1.15,2013-09-22 07:44:00,
2013-09-22 03:47:00,54.1,46.3,29.96,SSE,148,0.0,4.0,75,0.00,,,0.00,Wunderground v.1.15,2013-09-22 07:47:00,
2013-09-22 03:48:00,54.1,46.3,29.96,SSE,148,1.0,4.0,75,0.00,,,0.00,Wunderground v.1.15,2013-09-22 07:48:00,
2013-09-22 03:49:00,54.1,46.3,29.95,ESE,105,3.0,4.0,75,0.00,,,0.00,Wunderground v.1.15,2013-09-22 07:49:00,
2013-09-22 03:52:00,54.1,46.3,29.96,ESE,107,4.0,4.0,75,0.00,,,0.00,Wunderground v.1.15,2013-09-22 07:52:00,
2013-09-22 03:53:00,54.1,46.3,29.95,ESE,104,0.0,4.0,75,0.00,,,0.00,Wunderground v.1.15,2013-09-22 07:53:00,
2013-09-22 03:55:00,54.1,46.3,29.95,ESE,108,1.0,4.0,75,0.00,,,0.00,Wunderground v.1.15,2013-09-22 07:55:00,
2013-09-22 03:57:00,54.1,46.3,29.96,ESE,106,1.0,4.0,75,0.00,,,0.00,Wunderground v.1.15,2013-09-22 07:57:00,
2013-09-22 03:58:00,54.1,46.3,29.96,ESE,114,2.0,4.0,75,0.00,,,0.00,Wunderground v.1.15,2013-09-22 07:58:00,
2013-09-22 04:00:00,54.1,46.0,29.96,ESE,106,0.0,1.0,74,0.00,,,0.00,Wunderground v.1.15,2013-09-22 08:00:00,
2013-09-22 04:02:00,54.1,46.3,29.96,ESE,105,0.0,2.0,75,0.00,,,0.00,Wunderground v.1.15,2013-09-22 08:02:00,
2013-09-22 04:04:00,54.1,46.3,29.96,East,87,5.0,5.0,75,0.00,,,0.00,Wunderground v.1.15,2013-09-22 08:04:00,
2013-09-22 04:05:00,54.1,46.0,29.96,ESE,107,0.0,5.0,74,0.00,,,0.00,Wunderground v.1.15,2013-09-22 08:05:00,
2013-09-22 04:06:00,54.1,46.3,29.96,ESE,106,0.0,5.0,75,0.00,,,0.00,Wunderground v.1.15,2013-09-22 08:06:00,
2013-09-22 04:08:00,54.0,46.3,29.96,ESE,106,0.0,5.0,75,0.00,,,0.00,Wunderground v.1.15,2013-09-22 08:08:00,
2013-09-22 04:09:00,54.0,46.3,29.96,ESE,102,2.0,5.0,75,0.00,,,0.00,Wunderground v.1.15,2013-09-22 08:09:00,
2013-09-22 04:11:00,54.0,46.3,29.96,ESE,103,1.0,1.0,75,0.00,,,0.00,Wunderground v.1.15,2013-09-22 08:11:00,
2013-09-22 04:13:00,54.0,46.3,29.96,ESE,109,0.0,3.0,75,0.00,,,0.00,Wunderground v.1.15,2013-09-22 08:13:00,
2013-09-22 04:14:00,53.9,46.2,29.96,ESE,109,0.0,3.0,75,0.00,,,0.00,Wunderground v.1.15,2013-09-22 08:14:00,
2013-09-22 04:17:00,53.8,46.1,29.97,ESE,103,0.0,5.0,75,0.00,,,0.00,Wunderground v.1.15,2013-09-22 08:17:00,
2013-09-22 04:18:00,53.8,46.1,29.97,ESE,103,0.0,5.0,75,0.00,,,0.00,Wunderground v.1.15,2013-09-22 08:18:00,
2013-09-22 04:19:00,53.8,46.4,29.96,ESE,103,0.0,5.0,76,0.00,,,0.00,Wunderground v.1.15,2013-09-22 08:19:00,
2013-09-22 04:22:00,53.6,46.2,29.97,ESE,103,0.0,1.0,76,0.00,,,0.00,Wunderground v.1.15,2013-09-22 08:22:00,
2013-09-22 04:23:00,53.5,46.1,29.96,ESE,103,0.0,1.0,76,0.00,,,0.00,Wunderground v.1.15,2013-09-22 08:23:00,
2013-09-22 04:24:00,53.5,46.1,29.97,ESE,103,0.0,1.0,76,0.00,,,0.00,Wunderground v.1.15,2013-09-22 08:24:00,
2013-09-22 04:28:00,53.3,46.3,29.97,ESE,103,0.0,1.0,77,0.00,,,0.00,Wunderground v.1.15,2013-09-22 08:28:00,
2013-09-22 04:29:00,53.3,46.3,29.97,ESE,103,0.0,1.0,77,0.00,,,0.00,Wunderground v.1.15,2013-09-22 08:29:00,
2013-09-22 04:33:00,53.2,46.5,29.97,ESE,103,0.0,0.0,78,0.00,,,0.00,Wunderground v.1.15,2013-09-22 08:33:00,
2013-09-22 04:34:00,53.2,46.5,29.97,ESE,103,0.0,0.0,78,0.00,,,0.00,Wunderground v.1.15,2013-09-22 08:34:00,
2013-09-22 04:35:00,53.2,46.5,29.97,ESE,103,0.0,0.0,78,0.00,,,0.00,Wunderground v.1.15,2013-09-22 08:35:00,
2013-09-22 04:39:00,53.1,46.4,29.97,ESE,103,1.0,2.0,78,0.00,,,0.00,Wunderground v.1.15,2013-09-22 08:39:00,
2013-09-22 04:40:00,53.0,46.3,29.97,ESE,103,0.0,0.0,78,0.00,,,0.00,Wunderground v.1.15,2013-09-22 08:40:00,
2013-09-22 04:41:00,53.0,46.3,29.97,ESE,103,0.0,1.0,78,0.00,,,0.00,Wunderground v.1.15,2013-09-22 08:41:00,
2013-09-22 04:44:00,53.0,46.3,29.97,ESE,103,0.0,3.0,78,0.00,,,0.00,Wunderground v.1.15,2013-09-22 08:44:00,
2013-09-22 04:45:00,53.0,46.3,29.97,ESE,103,0.0,3.0,78,0.00,,,0.00,Wunderground v.1.15,2013-09-22 08:45:00,
2013-09-22 04:46:00,53.0,46.3,29.97,ESE,103,0.0,3.0,78,0.00,,,0.00,Wunderground v.1.15,2013-09-22 08:46:00,
2013-09-22 04:50:00,53.0,46.7,29.97,ESE,103,0.0,3.0,79,0.00,,,0.00,Wunderground v.1.15,2013-09-22 08:50:00,
2013-09-22 04:51:00,53.0,46.3,29.97,ESE,102,0.0,1.0,78,0.00,,,0.00,Wunderground v.1.15,2013-09-22 08:51:00,
2013-09-22 04:55:00,53.0,46.7,29.97,East,101,0.0,2.0,79,0.00,,,0.00,Wunderground v.1.15,2013-09-22 08:55:00,
2013-09-22 04:56:00,53.0,46.3,29.97,ESE,118,0.0,4.0,78,0.00,,,0.00,Wunderground v.1.15,2013-09-22 08:56:00,
2013-09-22 04:57:00,53.0,46.3,29.97,ESE,118,0.0,4.0,78,0.00,,,0.00,Wunderground v.1.15,2013-09-22 08:57:00,
2013-09-22 05:00:00,53.0,46.3,29.97,ESE,114,0.0,1.0,78,0.00,,,0.00,Wunderground v.1.15,2013-09-22 09:00:00,
2013-09-22 05:01:00,52.9,46.2,29.97,ESE,115,1.0,2.0,78,0.00,,,0.00,Wunderground v.1.15,2013-09-22 09:01:00,
2013-09-22 05:03:00,52.8,46.1,29.97,ESE,114,1.0,3.0,78,0.00,,,0.00,Wunderground v.1.15,2013-09-22 09:03:00,
2013-09-22 05:05:00,52.8,46.1,29.97,ESE,114,0.0,3.0,78,0.00,,,0.00,Wunderground v.1.15,2013-09-22 09:05:00,
2013-09-22 05:06:00,52.8,46.1,29.97,ESE,114,0.0,3.0,78,0.00,,,0.00,Wunderground v.1.15,2013-09-22 09:06:00,
2013-09-22 05:07:00,52.7,46.0,29.97,SE,143,2.0,3.0,78,0.00,,,0.00,Wunderground v.1.15,2013-09-22 09:07:00,
2013-09-22 05:10:00,52.6,46.3,29.97,ESE,120,0.0,1.0,79,0.00,,,0.00,Wunderground v.1.15,2013-09-22 09:10:00,
2013-09-22 05:11:00,52.5,46.2,29.97,ESE,120,0.0,1.0,79,0.00,,,0.00,Wunderground v.1.15,2013-09-22 09:11:00,
2013-09-22 05:12:00,52.4,46.1,29.97,ESE,120,1.0,2.0,79,0.00,,,0.00,Wunderground v.1.15,2013-09-22 09:12:00,
2013-09-22 05:15:00,52.3,46.0,29.97,ESE,120,0.0,2.0,79,0.00,,,0.00,Wunderground v.1.15,2013-09-22 09:15:00,
2013-09-22 05:16:00,52.2,45.9,29.97,ESE,120,2.0,2.0,79,0.00,,,0.00,Wunderground v.1.15,2013-09-22 09:16:00,
2013-09-22 05:17:00,52.2,45.9,29.97,ESE,120,0.0,2.0,79,0.00,,,0.00,Wunderground v.1.15,2013-09-22 09:17:00,
2013-09-22 05:20:00,51.9,45.9,29.97,ESE,120,0.0,0.0,80,0.00,,,0.00,Wunderground v.1.15,2013-09-22 09:20:00,
2013-09-22 05:21:00,51.9,45.9,29.97,ESE,120,0.0,0.0,80,0.00,,,0.00,Wunderground v.1.15,2013-09-22 09:21:00,
2013-09-22 05:22:00,51.9,45.9,29.97,ESE,120,0.0,0.0,80,0.00,,,0.00,Wunderground v.1.15,2013-09-22 09:22:00,
2013-09-22 05:25:00,51.6,46.0,29.97,ESE,120,1.0,2.0,81,0.00,,,0.00,Wunderground v.1.15,2013-09-22 09:25:00,
2013-09-22 05:27:00,51.6,46.0,29.97,SE,126,1.0,3.0,81,0.00,,,0.00,Wunderground v.1.15,2013-09-22 09:27:00,
2013-09-22 05:31:00,51.4,45.8,29.97,SE,126,0.0,1.0,81,0.00,,,0.00,Wunderground v.1.15,2013-09-22 09:31:00,
2013-09-22 05:32:00,51.4,45.8,29.97,SE,126,0.0,1.0,81,0.00,,,0.00,Wunderground v.1.15,2013-09-22 09:32:00,
2013-09-22 05:33:00,51.4,45.8,29.97,SE,126,0.0,1.0,81,0.00,,,0.00,Wunderground v.1.15,2013-09-22 09:33:00,
2013-09-22 05:36:00,51.3,46.0,29.98,SE,126,0.0,1.0,82,0.00,,,0.00,Wunderground v.1.15,2013-09-22 09:36:00,
2013-09-22 05:37:00,51.3,46.0,29.97,SE,126,0.0,1.0,82,0.00,,,0.00,Wunderground v.1.15,2013-09-22 09:37:00,
2013-09-22 05:38:00,51.2,45.9,29.97,SE,126,0.0,1.0,82,0.00,,,0.00,Wunderground v.1.15,2013-09-22 09:38:00,
2013-09-22 05:39:00,51.2,45.9,29.98,SE,126,0.0,1.0,82,0.00,,,0.00,Wunderground v.1.15,2013-09-22 09:39:00,
2013-09-22 05:41:00,51.1,45.8,29.98,SE,126,0.0,0.0,82,0.00,,,0.00,Wunderground v.1.15,2013-09-22 09:41:00,
2013-09-22 05:42:00,51.0,45.7,29.98,SE,126,0.0,1.0,82,0.00,,,0.00,Wunderground v.1.15,2013-09-22 09:42:00,
2013-09-22 05:43:00,51.0,45.7,29.98,SE,126,0.0,1.0,82,0.00,,,0.00,Wunderground v.1.15,2013-09-22 09:43:00,
2013-09-22 05:44:00,51.0,45.7,29.98,SE,126,0.0,1.0,82,0.00,,,0.00,Wunderground v.1.15,2013-09-22 09:44:00,
2013-09-22 05:46:00,50.9,45.9,29.98,SE,126,0.0,1.0,83,0.00,,,0.00,Wunderground v.1.15,2013-09-22 09:46:00,
2013-09-22 05:48:00,50.8,45.8,29.98,SE,126,0.0,1.0,83,0.00,,,0.00,Wunderground v.1.15,2013-09-22 09:48:00,
2013-09-22 05:49:00,50.8,45.8,29.98,SE,126,0.0,1.0,83,0.00,,,0.00,Wunderground v.1.15,2013-09-22 09:49:00,
2013-09-22 05:51:00,50.7,45.7,29.98,SE,126,0.0,1.0,83,0.00,,,0.00,Wunderground v.1.15,2013-09-22 09:51:00,
2013-09-22 05:53:00,50.7,45.7,29.98,SE,126,0.0,1.0,83,0.00,,,0.00,Wunderground v.1.15,2013-09-22 09:53:00,
2013-09-22 05:55:00,50.7,45.7,29.98,SE,126,0.0,1.0,83,0.00,,,0.00,Wunderground v.1.15,2013-09-22 09:55:00,
2013-09-22 05:57:00,50.7,45.7,29.98,SE,126,0.0,1.0,83,0.00,,,0.00,Wunderground v.1.15,2013-09-22 09:57:00,
2013-09-22 05:58:00,50.7,45.7,29.98,SE,126,0.0,1.0,83,0.00,,,0.00,Wunderground v.1.15,2013-09-22 09:58:00,
2013-09-22 05:59:00,50.6,45.6,29.98,SE,126,0.0,1.0,83,0.00,,,0.00,Wunderground v.1.15,2013-09-22 09:59:00,
2013-09-22 06:00:00,50.6,45.6,29.98,SE,126,0.0,1.0,83,0.00,,,0.00,Wunderground v.1.15,2013-09-22 10:00:00,
2013-09-22 06:03:00,50.5,45.5,29.98,SE,126,0.0,1.0,83,0.00,,,0.00,Wunderground v.1.15,2013-09-22 10:03:00,
2013-09-22 06:04:00,50.5,45.5,29.98,SE,126,0.0,1.0,83,0.00,,,0.00,Wunderground v.1.15,2013-09-22 10:04:00,
2013-09-22 06:06:00,50.5,45.8,29.98,SE,126,0.0,1.0,84,0.00,,,0.00,Wunderground v.1.15,2013-09-22 10:06:00,
2013-09-22 06:08:00,50.3,45.6,29.98,SE,126,0.0,3.0,84,0.00,,,0.00,Wunderground v.1.15,2013-09-22 10:08:00,
2013-09-22 06:09:00,50.3,45.6,29.98,SE,126,0.0,3.0,84,0.00,,,0.00,Wunderground v.1.15,2013-09-22 10:09:00,
2013-09-22 06:10:00,50.3,45.6,29.98,SE,126,0.0,0.0,84,0.00,,,0.00,Wunderground v.1.15,2013-09-22 10:10:00,
2013-09-22 06:11:00,50.2,45.6,29.98,SE,126,0.0,1.0,84,0.00,,,0.00,Wunderground v.1.15,2013-09-22 10:11:00,
2013-09-22 06:14:00,50.2,45.6,29.98,SE,126,0.0,1.0,84,0.00,,,0.00,Wunderground v.1.15,2013-09-22 10:14:00,
2013-09-22 06:15:00,50.1,45.8,29.98,SE,126,3.0,3.0,85,0.00,,,0.00,Wunderground v.1.15,2013-09-22 10:15:00,
2013-09-22 06:17:00,50.1,45.8,29.98,SE,126,0.0,3.0,85,0.00,,,0.00,Wunderground v.1.15,2013-09-22 10:17:00,
2013-09-22 06:19:00,50.1,45.8,29.98,SE,126,0.0,3.0,85,0.00,,,0.00,Wunderground v.1.15,2013-09-22 10:19:00,
2013-09-22 06:20:00,50.1,45.8,29.98,SE,126,0.0,0.0,85,0.00,,,0.00,Wunderground v.1.15,2013-09-22 10:20:00,
2013-09-22 06:22:00,50.2,45.9,29.98,SE,126,0.0,0.0,85,0.00,,,0.00,Wunderground v.1.15,2013-09-22 10:22:00,
2013-09-22 06:24:00,50.2,45.9,29.98,SE,126,0.0,1.0,85,0.00,,,0.00,Wunderground v.1.15,2013-09-22 10:24:00,
2013-09-22 06:25:00,50.2,45.9,29.98,SE,126,0.0,1.0,85,0.00,,,0.00,Wunderground v.1.15,2013-09-22 10:25:00,
2013-09-22 06:26:00,50.2,45.9,29.98,SE,126,0.0,1.0,85,0.00,,,0.00,Wunderground v.1.15,2013-09-22 10:26:00,
2013-09-22 06:28:00,50.2,45.9,29.98,SE,126,0.0,1.0,85,0.00,,,0.00,Wunderground v.1.15,2013-09-22 10:28:00,
2013-09-22 06:29:00,50.3,46.0,29.98,SE,126,0.0,1.0,85,0.00,,,0.00,Wunderground v.1.15,2013-09-22 10:29:00,
2013-09-22 06:30:00,50.3,46.0,29.98,SE,126,0.0,0.0,85,0.00,,,0.00,Wunderground v.1.15,2013-09-22 10:30:00,
2013-09-22 06:31:00,50.3,46.0,29.98,SE,126,0.0,0.0,85,0.00,,,0.00,Wunderground v.1.15,2013-09-22 10:31:00,
2013-09-22 06:33:00,50.3,46.0,29.98,SE,126,0.0,1.0,85,0.00,,,0.00,Wunderground v.1.15,2013-09-22 10:33:00,
2013-09-22 06:34:00,50.4,46.1,29.98,SE,126,0.0,1.0,85,0.00,,,0.00,Wunderground v.1.15,2013-09-22 10:34:00,
2013-09-22 06:35:00,50.4,46.1,29.98,SE,126,0.0,1.0,85,0.00,,,0.00,Wunderground v.1.15,2013-09-22 10:35:00,
2013-09-22 06:36:00,50.4,46.1,29.98,SE,126,1.0,1.0,85,0.00,,,0.00,Wunderground v.1.15,2013-09-22 10:36:00,
2013-09-22 06:37:00,50.4,46.1,29.98,SE,126,0.0,1.0,85,0.00,,,0.00,Wunderground v.1.15,2013-09-22 10:37:00,
2013-09-22 06:38:00,50.5,46.2,29.98,SE,126,0.0,1.0,85,0.00,,,0.00,Wunderground v.1.15,2013-09-22 10:38:00,
2013-09-22 06:40:00,50.5,46.2,29.98,SE,126,0.0,0.0,85,0.00,,,0.00,Wunderground v.1.15,2013-09-22 10:40:00,
2013-09-22 06:42:00,50.6,45.9,29.98,SE,126,1.0,1.0,84,0.00,,,0.00,Wunderground v.1.15,2013-09-22 10:42:00,
2013-09-22 06:44:00,50.6,45.9,29.98,SE,126,0.0,1.0,84,0.00,,,0.00,Wunderground v.1.15,2013-09-22 10:44:00,
2013-09-22 06:45:00,50.6,45.9,29.98,SE,126,0.0,1.0,84,0.00,,,0.00,Wunderground v.1.15,2013-09-22 10:45:00,
2013-09-22 06:47:00,50.6,45.9,29.98,SE,126,0.0,1.0,84,0.00,,,0.00,Wunderground v.1.15,2013-09-22 10:47:00,
2013-09-22 06:49:00,50.6,45.6,29.98,SE,126,0.0,1.0,83,0.00,,,0.00,Wunderground v.1.15,2013-09-22 10:49:00,
2013-09-22 06:50:00,50.6,45.6,29.98,SE,126,0.0,0.0,83,0.00,,,0.00,Wunderground v.1.15,2013-09-22 10:50:00,
2013-09-22 06:51:00,50.6,45.9,29.98,SE,126,0.0,0.0,84,0.00,,,0.00,Wunderground v.1.15,2013-09-22 10:51:00,
2013-09-22 06:53:00,50.6,45.9,29.98,SE,126,0.0,0.0,84,0.00,,,0.00,Wunderground v.1.15,2013-09-22 10:53:00,
2013-09-22 06:54:00,50.5,45.8,29.98,SE,126,0.0,0.0,84,0.00,,,0.00,Wunderground v.1.15,2013-09-22 10:54:00,
2013-09-22 06:58:00,50.4,45.7,29.98,SE,126,0.0,1.0,84,0.00,,,0.00,Wunderground v.1.15,2013-09-22 10:58:00,
2013-09-22 06:59:00,50.4,46.1,29.98,SE,126,0.0,1.0,85,0.00,,,0.00,Wunderground v.1.15,2013-09-22 10:59:00,
2013-09-22 07:00:00,50.3,46.0,29.98,SE,126,0.0,0.0,85,0.00,,,0.00,Wunderground v.1.15,2013-09-22 11:00:00,
2013-09-22 07:03:00,50.3,46.0,29.99,SE,126,0.0,1.0,85,0.00,,,0.00,Wunderground v.1.15,2013-09-22 11:03:00,
2013-09-22 07:04:00,50.3,46.0,29.99,SE,126,0.0,1.0,85,0.00,,,0.00,Wunderground v.1.15,2013-09-22 11:04:00,
2013-09-22 07:06:00,50.2,45.9,29.99,SE,126,0.0,1.0,85,0.00,,,0.00,Wunderground v.1.15,2013-09-22 11:06:00,
2013-09-22 07:08:00,50.2,45.9,29.99,SE,126,0.0,1.0,85,0.00,,,0.00,Wunderground v.1.15,2013-09-22 11:08:00,
2013-09-22 07:09:00,50.2,45.9,29.99,SE,126,0.0,1.0,85,0.00,,,0.00,Wunderground v.1.15,2013-09-22 11:09:00,
2013-09-22 07:10:00,50.2,45.9,29.99,SE,126,0.0,0.0,85,0.00,,,0.00,Wunderground v.1.15,2013-09-22 11:10:00,
2013-09-22 07:12:00,50.2,45.9,29.99,SE,126,0.0,1.0,85,0.00,,,0.00,Wunderground v.1.15,2013-09-22 11:12:00,
2013-09-22 07:14:00,50.2,45.9,29.99,SE,126,0.0,1.0,85,0.00,,,0.00,Wunderground v.1.15,2013-09-22 11:14:00,
2013-09-22 07:15:00,50.2,46.2,29.99,SE,126,0.0,1.0,86,0.00,,,0.00,Wunderground v.1.15,2013-09-22 11:15:00,
2013-09-22 07:18:00,50.2,46.2,29.99,SE,126,0.0,1.0,86,0.00,,,0.00,Wunderground v.1.15,2013-09-22 11:18:00,
2013-09-22 07:19:00,50.2,46.2,29.99,SE,126,0.0,1.0,86,0.00,,,0.00,Wunderground v.1.15,2013-09-22 11:19:00,
2013-09-22 07:20:00,50.2,46.2,29.99,SE,126,0.0,0.0,86,0.00,,,0.00,Wunderground v.1.15,2013-09-22 11:20:00,
2013-09-22 07:23:00,50.3,46.3,29.99,SE,126,0.0,1.0,86,0.00,,,0.00,Wunderground v.1.15,2013-09-22 11:23:00,
2013-09-22 07:24:00,50.3,46.3,29.99,SE,126,0.0,1.0,86,0.00,,,0.00,Wunderground v.1.15,2013-09-22 11:24:00,
2013-09-22 07:25:00,50.3,46.3,29.99,SE,126,0.0,1.0,86,0.00,,,0.00,Wunderground v.1.15,2013-09-22 11:25:00,
2013-09-22 07:28:00,50.3,46.0,29.99,SE,126,0.0,1.0,85,0.00,,,0.00,Wunderground v.1.15,2013-09-22 11:28:00,
2013-09-22 07:29:00,50.3,46.0,29.99,SE,126,0.0,1.0,85,0.00,,,0.00,Wunderground v.1.15,2013-09-22 11:29:00,
2013-09-22 07:30:00,50.3,46.0,29.99,SE,126,0.0,0.0,85,0.00,,,0.00,Wunderground v.1.15,2013-09-22 11:30:00,
2013-09-22 07:31:00,50.3,46.0,29.99,SE,126,0.0,1.0,85,0.00,,,0.00,Wunderground v.1.15,2013-09-22 11:31:00,
2013-09-22 07:32:00,50.3,46.0,29.99,SE,126,0.0,1.0,85,0.00,,,0.00,Wunderground v.1.15,2013-09-22 11:32:00,
2013-09-22 07:33:00,50.3,46.3,29.99,SE,126,0.0,1.0,86,0.00,,,0.00,Wunderground v.1.15,2013-09-22 11:33:00,
2013-09-22 07:34:00,50.3,46.3,29.99,SE,126,1.0,1.0,86,0.00,,,0.00,Wunderground v.1.15,2013-09-22 11:34:00,
2013-09-22 07:35:00,50.3,46.3,29.99,SE,126,0.0,1.0,86,0.00,,,0.00,Wunderground v.1.15,2013-09-22 11:35:00,
2013-09-22 07:36:00,50.2,46.2,30.00,SE,126,0.0,1.0,86,0.00,,,0.00,Wunderground v.1.15,2013-09-22 11:36:00,
2013-09-22 07:37:00,50.2,46.2,30.00,SE,126,0.0,1.0,86,0.00,,,0.00,Wunderground v.1.15,2013-09-22 11:37:00,
2013-09-22 07:38:00,50.2,46.2,30.00,SE,126,0.0,1.0,86,0.00,,,0.00,Wunderground v.1.15,2013-09-22 11:38:00,
2013-09-22 07:40:00,50.2,46.2,30.00,SE,126,0.0,0.0,86,0.00,,,0.00,Wunderground v.1.15,2013-09-22 11:40:00,
2013-09-22 07:41:00,50.2,46.2,30.00,SE,126,0.0,0.0,86,0.00,,,0.00,Wunderground v.1.15,2013-09-22 11:41:00,
2013-09-22 07:43:00,50.1,46.1,30.00,SE,126,0.0,1.0,86,0.00,,,0.00,Wunderground v.1.15,2013-09-22 11:43:00,
2013-09-22 07:44:00,50.1,46.1,30.00,SE,126,0.0,1.0,86,0.00,,,0.00,Wunderground v.1.15,2013-09-22 11:44:00,
2013-09-22 07:45:00,50.1,46.1,30.00,SE,126,0.0,1.0,86,0.00,,,0.00,Wunderground v.1.15,2013-09-22 11:45:00,
2013-09-22 07:46:00,50.2,46.5,30.00,SE,126,0.0,1.0,87,0.00,,,0.00,Wunderground v.1.15,2013-09-22 11:46:00,
2013-09-22 07:48:00,50.1,46.4,30.00,SE,126,0.0,1.0,87,0.00,,,0.00,Wunderground v.1.15,2013-09-22 11:48:00,
2013-09-22 07:49:00,50.2,46.5,30.00,SE,126,1.0,1.0,87,0.00,,,0.00,Wunderground v.1.15,2013-09-22 11:49:00,
2013-09-22 07:50:00,50.2,46.5,30.00,SE,126,0.0,0.0,87,0.00,,,0.00,Wunderground v.1.15,2013-09-22 11:50:00,
2013-09-22 07:51:00,50.2,46.5,30.00,SE,126,0.0,0.0,87,0.00,,,0.00,Wunderground v.1.15,2013-09-22 11:51:00,
2013-09-22 07:53:00,50.2,46.5,30.00,SE,126,0.0,0.0,87,0.00,,,0.00,Wunderground v.1.15,2013-09-22 11:53:00,
2013-09-22 07:55:00,50.3,46.6,30.00,SE,126,0.0,0.0,87,0.00,,,0.00,Wunderground v.1.15,2013-09-22 11:55:00,
2013-09-22 07:56:00,50.3,46.6,30.00,SE,126,0.0,0.0,87,0.00,,,0.00,Wunderground v.1.15,2013-09-22 11:56:00,
2013-09-22 07:58:00,50.4,46.7,30.01,SE,126,0.0,0.0,87,0.00,,,0.00,Wunderground v.1.15,2013-09-22 11:58:00,
2013-09-22 08:00:00,50.4,46.7,30.01,SE,126,0.0,0.0,87,0.00,,,0.00,Wunderground v.1.15,2013-09-22 12:00:00,
2013-09-22 08:01:00,50.5,46.8,30.01,SE,126,0.0,0.0,87,0.00,,,0.00,Wunderground v.1.15,2013-09-22 12:01:00,
2013-09-22 08:03:00,50.5,46.8,30.01,SE,126,0.0,1.0,87,0.00,,,0.00,Wunderground v.1.15,2013-09-22 12:03:00,
2013-09-22 08:05:00,50.5,46.8,30.01,SE,126,0.0,1.0,87,0.00,,,0.00,Wunderground v.1.15,2013-09-22 12:05:00,
2013-09-22 08:06:00,50.5,46.8,30.01,SE,126,0.0,1.0,87,0.00,,,0.00,Wunderground v.1.15,2013-09-22 12:06:00,
2013-09-22 08:08:00,50.5,46.8,30.01,SE,126,0.0,1.0,87,0.00,,,0.00,Wunderground v.1.15,2013-09-22 12:08:00,
2013-09-22 08:09:00,50.5,46.8,30.01,SE,126,0.0,1.0,87,0.00,,,0.00,Wunderground v.1.15,2013-09-22 12:09:00,
2013-09-22 08:10:00,50.6,46.9,30.01,SE,126,0.0,0.0,87,0.00,,,0.00,Wunderground v.1.15,2013-09-22 12:10:00,
2013-09-22 08:11:00,50.6,46.9,30.01,SE,126,0.0,0.0,87,0.00,,,0.00,Wunderground v.1.15,2013-09-22 12:11:00,
2013-09-22 08:14:00,50.6,46.9,30.01,SE,126,0.0,0.0,87,0.00,,,0.00,Wunderground v.1.15,2013-09-22 12:14:00,
2013-09-22 08:16:00,50.7,46.7,30.01,SE,126,0.0,0.0,86,0.00,,,0.00,Wunderground v.1.15,2013-09-22 12:16:00,
2013-09-22 08:19:00,50.8,46.8,30.01,SE,126,0.0,0.0,86,0.00,,,0.00,Wunderground v.1.15,2013-09-22 12:19:00,
2013-09-22 08:21:00,50.9,47.5,30.01,SE,126,0.0,0.0,88,0.00,,,0.00,Wunderground v.1.15,2013-09-22 12:21:00,
2013-09-22 08:22:00,50.9,47.2,30.01,SE,126,0.0,0.0,87,0.00,,,0.00,Wunderground v.1.15,2013-09-22 12:22:00,
2013-09-22 08:24:00,50.9,47.2,30.01,SE,126,0.0,0.0,87,0.00,,,0.00,Wunderground v.1.15,2013-09-22 12:24:00,
2013-09-22 08:26:00,51.0,47.3,30.01,SE,126,0.0,0.0,87,0.00,,,0.00,Wunderground v.1.15,2013-09-22 12:26:00,
2013-09-22 08:27:00,51.1,47.4,30.01,SE,126,0.0,0.0,87,0.00,,,0.00,Wunderground v.1.15,2013-09-22 12:27:00,
2013-09-22 08:29:00,51.2,47.5,30.01,SE,126,0.0,0.0,87,0.00,,,0.00,Wunderground v.1.15,2013-09-22 12:29:00,
2013-09-22 08:30:00,51.2,47.5,30.01,SE,126,0.0,1.0,87,0.00,,,0.00,Wunderground v.1.15,2013-09-22 12:30:00,
2013-09-22 08:32:00,51.3,47.6,30.01,SE,126,0.0,1.0,87,0.00,,,0.00,Wunderground v.1.15,2013-09-22 12:32:00,
2013-09-22 08:35:00,51.4,47.4,30.01,SE,126,0.0,2.0,86,0.00,,,0.00,Wunderground v.1.15,2013-09-22 12:35:00,
2013-09-22 08:36:00,51.4,47.4,30.01,SE,126,0.0,2.0,86,0.00,,,0.00,Wunderground v.1.15,2013-09-22 12:36:00,
2013-09-22 08:37:00,51.4,47.4,30.02,SE,126,0.0,2.0,86,0.00,,,0.00,Wunderground v.1.15,2013-09-22 12:37:00,
2013-09-22 08:40:00,51.5,47.5,30.02,SE,124,0.0,1.0,86,0.00,,,0.00,Wunderground v.1.15,2013-09-22 12:40:00,
2013-09-22 08:41:00,51.6,47.5,30.02,SE,124,1.0,1.0,86,0.00,,,0.00,Wunderground v.1.15,2013-09-22 12:41:00,
2013-09-22 08:42:00,51.7,47.6,30.02,SE,124,0.0,1.0,86,0.00,,,0.00,Wunderground v.1.15,2013-09-22 12:42:00,
2013-09-22 08:43:00,51.7,48.0,30.02,SE,124,2.0,2.0,87,0.00,,,0.00,Wunderground v.1.15,2013-09-22 12:43:00,
2013-09-22 08:45:00,51.9,47.8,30.02,ESE,123,2.0,2.0,86,0.00,,,0.00,Wunderground v.1.15,2013-09-22 12:45:00,
2013-09-22 08:46:00,51.9,47.8,30.02,East,101,3.0,4.0,86,0.00,,,0.00,Wunderground v.1.15,2013-09-22 12:46:00,
2013-09-22 08:47:00,51.9,47.5,30.02,East,98,0.0,4.0,85,0.00,,,0.00,Wunderground v.1.15,2013-09-22 12:47:00,
2013-09-22 08:48:00,52.0,47.6,30.02,East,96,3.0,4.0,85,0.00,,,0.00,Wunderground v.1.15,2013-09-22 12:48:00,
2013-09-22 08:51:00,52.1,48.3,30.02,East,96,0.0,2.0,87,0.00,,,0.00,Wunderground v.1.15,2013-09-22 12:51:00,
2013-09-22 08:52:00,52.1,48.0,30.02,ESE,102,3.0,3.0,86,0.00,,,0.00,Wunderground v.1.15,2013-09-22 12:52:00,
2013-09-22 08:53:00,52.1,48.0,30.02,ESE,110,1.0,3.0,86,0.00,,,0.00,Wunderground v.1.15,2013-09-22 12:53:00,
2013-09-22 08:56:00,52.1,47.7,30.02,East,91,3.0,6.0,85,0.00,,,0.00,Wunderground v.1.15,2013-09-22 12:56:00,
2013-09-22 08:57:00,52.1,48.0,30.02,ESE,111,1.0,6.0,86,0.00,,,0.00,Wunderground v.1.15,2013-09-22 12:57:00,
2013-09-22 08:58:00,52.2,48.1,30.02,ESE,111,0.0,6.0,86,0.00,,,0.00,Wunderground v.1.15,2013-09-22 12:58:00,
2013-09-22 09:01:00,52.4,48.0,30.02,East,84,0.0,3.0,85,0.00,,,0.00,Wunderground v.1.15,2013-09-22 13:01:00,
2013-09-22 09:02:00,52.4,48.0,30.02,South,184,0.0,3.0,85,0.00,,,0.00,Wunderground v.1.15,2013-09-22 13:02:00,
2013-09-22 09:03:00,52.6,48.2,30.02,East,85,5.0,5.0,85,0.00,,,0.00,Wunderground v.1.15,2013-09-22 13:03:00,
2013-09-22 09:06:00,52.6,47.6,30.03,SE,125,0.0,7.0,83,0.00,,,0.00,Wunderground v.1.15,2013-09-22 13:06:00,
2013-09-22 09:07:00,52.6,47.3,30.03,SE,125,0.0,7.0,82,0.00,,,0.00,Wunderground v.1.15,2013-09-22 13:07:00,
2013-09-22 09:08:00,52.6,47.3,30.02,SE,125,0.0,7.0,82,0.00,,,0.00,Wunderground v.1.15,2013-09-22 13:08:00,
2013-09-22 09:09:00,52.6,47.3,30.03,SE,125,1.0,7.0,82,0.00,,,0.00,Wunderground v.1.15,2013-09-22 13:09:00,
2013-09-22 09:12:00,52.5,47.2,30.03,SE,125,0.0,1.0,82,0.00,,,0.00,Wunderground v.1.15,2013-09-22 13:12:00,
2013-09-22 09:13:00,52.4,47.1,30.03,East,94,3.0,5.0,82,0.00,,,0.00,Wunderground v.1.15,2013-09-22 13:13:00,
2013-09-22 09:14:00,52.4,46.7,30.03,ESE,103,2.0,5.0,81,0.00,,,0.00,Wunderground v.1.15,2013-09-22 13:14:00,
2013-09-22 09:17:00,52.4,47.1,30.03,ESE,103,0.0,5.0,82,0.00,,,0.00,Wunderground v.1.15,2013-09-22 13:17:00,
2013-09-22 09:18:00,52.4,46.4,30.03,East,98,4.0,5.0,80,0.00,,,0.00,Wunderground v.1.15,2013-09-22 13:18:00,
2013-09-22 09:19:00,52.4,46.4,30.03,East,101,2.0,5.0,80,0.00,,,0.00,Wunderground v.1.15,2013-09-22 13:19:00,
2013-09-22 09:22:00,52.6,45.9,30.03,ESE,122,3.0,6.0,78,0.00,,,0.00,Wunderground v.1.15,2013-09-22 13:22:00,
2013-09-22 09:23:00,52.6,45.9,30.03,ESE,113,2.0,6.0,78,0.00,,,0.00,Wunderground v.1.15,2013-09-22 13:23:00,
2013-09-22 09:24:00,52.7,46.0,30.03,East,92,2.0,6.0,78,0.00,,,0.00,Wunderground v.1.15,2013-09-22 13:24:00,
2013-09-22 09:25:00,52.9,45.9,30.03,SE,128,2.0,6.0,77,0.00,,,0.00,Wunderground v.1.15,2013-09-22 13:25:00,
2013-09-22 09:28:00,53.2,46.5,30.03,SE,127,0.0,6.0,78,0.00,,,0.00,Wunderground v.1.15,2013-09-22 13:28:00,
2013-09-22 09:29:00,53.5,47.1,30.03,ESE,123,1.0,6.0,79,0.00,,,0.00,Wunderground v.1.15,2013-09-22 13:29:00,
2013-09-22 09:31:00,53.6,46.2,30.03,East,91,2.0,6.0,76,0.00,,,0.00,Wunderground v.1.15,2013-09-22 13:31:00,
2013-09-22 09:33:00,53.9,46.5,30.03,East,96,2.0,6.0,76,0.00,,,0.00,Wunderground v.1.15,2013-09-22 13:33:00,
2013-09-22 09:34:00,54.0,47.0,30.04,East,95,0.0,6.0,77,0.00,,,0.00,Wunderground v.1.15,2013-09-22 13:34:00,
2013-09-22 09:36:00,54.1,46.7,30.04,ESE,123,4.0,6.0,76,0.00,,,0.00,Wunderground v.1.15,2013-09-22 13:36:00,
2013-09-22 09:38:00,54.2,46.1,30.04,ESE,105,3.0,6.0,74,0.00,,,0.00,Wunderground v.1.15,2013-09-22 13:38:00,
2013-09-22 09:39:00,54.2,46.1,30.04,ESE,110,3.0,6.0,74,0.00,,,0.00,Wunderground v.1.15,2013-09-22 13:39:00,
2013-09-22 09:41:00,54.3,46.5,30.04,ESE,123,0.0,5.0,75,0.00,,,0.00,Wunderground v.1.15,2013-09-22 13:41:00,
2013-09-22 09:43:00,54.2,46.1,30.04,ESE,109,1.0,5.0,74,0.00,,,0.00,Wunderground v.1.15,2013-09-22 13:43:00,
2013-09-22 09:44:00,54.3,46.2,30.04,ESE,109,0.0,5.0,74,0.00,,,0.00,Wunderground v.1.15,2013-09-22 13:44:00,
2013-09-22 09:45:00,54.4,47.3,30.04,ESE,109,0.0,5.0,77,0.00,,,0.00,Wunderground v.1.15,2013-09-22 13:45:00,
2013-09-22 09:48:00,54.6,47.2,30.04,ESE,114,0.0,5.0,76,0.00,,,0.00,Wunderground v.1.15,2013-09-22 13:48:00,
2013-09-22 09:49:00,54.7,47.3,30.04,ESE,113,1.0,5.0,76,0.00,,,0.00,Wunderground v.1.15,2013-09-22 13:49:00,
2013-09-22 09:50:00,54.8,47.4,30.04,ESE,113,0.0,1.0,76,0.00,,,0.00,Wunderground v.1.15,2013-09-22 13:50:00,
2013-09-22 09:53:00,54.8,46.7,30.05,ESE,115,1.0,4.0,74,0.00,,,0.00,Wunderground v.1.15,2013-09-22 13:53:00,
2013-09-22 09:54:00,54.8,47.0,30.05,ESE,112,0.0,4.0,75,0.00,,,0.00,Wunderground v.1.15,2013-09-22 13:54:00,
2013-09-22 09:55:00,54.7,46.2,30.05,ESE,117,2.0,5.0,73,0.00,,,0.00,Wunderground v.1.15,2013-09-22 13:55:00,
2013-09-22 09:59:00,54.5,46.4,30.05,ESE,117,0.0,5.0,74,0.00,,,0.00,Wunderground v.1.15,2013-09-22 13:59:00,
2013-09-22 10:00:00,54.5,46.4,30.05,ESE,104,4.0,4.0,74,0.00,,,0.00,Wunderground v.1.15,2013-09-22 14:00:00,
2013-09-22 10:05:00,55.1,47.3,30.05,East,100,2.0,6.0,75,0.00,,,0.00,Wunderground v.1.15,2013-09-22 14:05:00,
2013-09-22 10:10:00,55.2,46.0,30.05,ESE,110,3.0,3.0,71,0.00,,,0.00,Wunderground v.1.15,2013-09-22 14:10:00,
2013-09-22 10:11:00,55.1,45.9,30.05,East,88,5.0,5.0,71,0.00,,,0.00,Wunderground v.1.15,2013-09-22 14:11:00,
2013-09-22 10:16:00,55.3,46.8,30.05,East,88,0.0,5.0,73,0.00,,,0.00,Wunderground v.1.15,2013-09-22 14:16:00,
2013-09-22 10:21:00,55.5,46.2,30.05,ESE,116,3.0,5.0,71,0.00,,,0.00,Wunderground v.1.15,2013-09-22 14:21:00,
2013-09-22 10:22:00,55.4,45.4,30.05,ESE,116,0.0,5.0,69,0.00,,,0.00,Wunderground v.1.15,2013-09-22 14:22:00,
2013-09-22 10:26:00,55.4,46.9,30.05,ESE,117,0.0,5.0,73,0.00,,,0.00,Wunderground v.1.15,2013-09-22 14:26:00,
2013-09-22 10:27:00,55.5,47.0,30.05,ESE,117,0.0,5.0,73,0.00,,,0.00,Wunderground v.1.15,2013-09-22 14:27:00,
2013-09-22 10:32:00,55.7,46.4,30.05,ENE,63,1.0,4.0,71,0.00,,,0.00,Wunderground v.1.15,2013-09-22 14:32:00,
2013-09-22 10:37:00,55.8,46.2,30.06,ESE,103,5.0,6.0,70,0.00,,,0.00,Wunderground v.1.15,2013-09-22 14:37:00,
2013-09-22 10:42:00,56.1,46.8,30.06,ESE,105,2.0,4.0,71,0.00,,,0.00,Wunderground v.1.15,2013-09-22 14:42:00,
2013-09-22 10:44:00,56.2,47.3,30.06,ESE,111,0.0,4.0,72,0.00,,,0.00,Wunderground v.1.15,2013-09-22 14:44:00,
2013-09-22 10:47:00,56.3,46.6,30.06,NW,325,0.0,4.0,70,0.00,,,0.00,Wunderground v.1.15,2013-09-22 14:47:00,
2013-09-22 10:49:00,56.4,47.5,30.06,NW,325,0.0,4.0,72,0.00,,,0.00,Wunderground v.1.15,2013-09-22 14:49:00,
2013-09-22 10:52:00,56.2,46.2,30.06,East,101,1.0,3.0,69,0.00,,,0.00,Wunderground v.1.15,2013-09-22 14:52:00,
2013-09-22 10:53:00,56.3,46.3,30.06,East,101,0.0,3.0,69,0.00,,,0.00,Wunderground v.1.15,2013-09-22 14:53:00,
2013-09-22 10:54:00,56.4,47.1,30.06,East,101,0.0,3.0,71,0.00,,,0.00,Wunderground v.1.15,2013-09-22 14:54:00,
2013-09-22 10:57:00,56.4,46.4,30.06,East,88,0.0,4.0,69,0.00,,,0.00,Wunderground v.1.15,2013-09-22 14:57:00,
2013-09-22 10:58:00,56.4,46.4,30.06,East,88,0.0,4.0,69,0.00,,,0.00,Wunderground v.1.15,2013-09-22 14:58:00,
2013-09-22 11:00:00,56.4,46.7,30.06,NE,43,3.0,3.0,70,0.00,,,0.00,Wunderground v.1.15,2013-09-22 15:00:00,
2013-09-22 11:02:00,56.6,49.1,30.06,NE,43,0.0,3.0,76,0.00,,,0.00,Wunderground v.1.15,2013-09-22 15:02:00,
2013-09-22 11:03:00,56.6,49.1,30.06,NE,43,0.0,3.0,76,0.00,,,0.00,Wunderground v.1.15,2013-09-22 15:03:00,
2013-09-22 11:05:00,56.8,46.3,30.06,East,101,0.0,4.0,68,0.00,,,0.00,Wunderground v.1.15,2013-09-22 15:05:00,
2013-09-22 11:08:00,56.7,47.8,30.06,NNW,347,1.0,4.0,72,0.00,,,0.00,Wunderground v.1.15,2013-09-22 15:08:00,
2013-09-22 11:10:00,56.9,48.7,30.06,NW,313,1.0,1.0,74,0.00,,,0.00,Wunderground v.1.15,2013-09-22 15:10:00,
2013-09-22 11:13:00,57.1,48.9,30.06,NW,315,0.0,1.0,74,0.00,,,0.00,Wunderground v.1.15,2013-09-22 15:13:00,
2013-09-22 11:16:00,56.6,47.7,30.06,NW,306,0.0,3.0,72,0.00,,,0.00,Wunderground v.1.15,2013-09-22 15:16:00,
2013-09-22 11:17:00,56.5,47.6,30.06,NW,306,1.0,3.0,72,0.00,,,0.00,Wunderground v.1.15,2013-09-22 15:17:00,
2013-09-22 11:18:00,56.2,48.4,30.06,NW,306,1.0,3.0,75,0.00,,,0.00,Wunderground v.1.15,2013-09-22 15:18:00,
2013-09-22 11:19:00,56.1,47.6,30.06,NW,306,0.0,3.0,73,0.00,,,0.00,Wunderground v.1.15,2013-09-22 15:19:00,
2013-09-22 11:21:00,55.7,47.9,30.06,NW,317,5.0,5.0,75,0.00,,,0.00,Wunderground v.1.15,2013-09-22 15:21:00,
2013-09-22 11:22:00,55.7,47.2,30.06,NNW,348,0.0,5.0,73,0.00,,,0.00,Wunderground v.1.15,2013-09-22 15:22:00,
2013-09-22 11:23:00,55.7,47.5,30.06,NNW,346,0.0,5.0,74,0.00,,,0.00,Wunderground v.1.15,2013-09-22 15:23:00,
2013-09-22 11:24:00,55.7,48.2,30.06,NNW,346,0.0,5.0,76,0.00,,,0.00,Wunderground v.1.15,2013-09-22 15:24:00,
2013-09-22 11:27:00,55.5,48.1,30.06,NW,313,1.0,5.0,76,0.00,,,0.00,Wunderground v.1.15,2013-09-22 15:27:00,
2013-09-22 11:28:00,55.3,47.2,30.06,NW,313,1.0,5.0,74,0.00,,,0.00,Wunderground v.1.15,2013-09-22 15:28:00,
2013-09-22 11:30:00,55.3,47.2,30.06,NW,313,1.0,1.0,74,0.00,,,0.00,Wunderground v.1.15,2013-09-22 15:30:00,
2013-09-22 11:32:00,55.3,46.8,30.06,NNW,346,3.0,3.0,73,0.00,,,0.00,Wunderground v.1.15,2013-09-22 15:32:00,
2013-09-22 11:33:00,55.2,47.1,30.06,NW,323,4.0,4.0,74,0.00,,,0.00,Wunderground v.1.15,2013-09-22 15:33:00,
2013-09-22 11:34:00,55.2,47.1,30.06,West,267,5.0,5.0,74,0.00,,,0.00,Wunderground v.1.15,2013-09-22 15:34:00,
2013-09-22 11:35:00,55.4,48.3,30.06,ESE,119,4.0,7.0,77,0.00,,,0.00,Wunderground v.1.15,2013-09-22 15:35:00,
2013-09-22 11:38:00,56.0,47.8,30.06,NNE,23,2.0,7.0,74,0.00,,,0.00,Wunderground v.1.15,2013-09-22 15:38:00,
2013-09-22 11:39:00,56.1,47.9,30.06,NW,313,2.0,7.0,74,0.00,,,0.00,Wunderground v.1.15,2013-09-22 15:39:00,
2013-09-22 11:40:00,56.1,47.6,30.06,NW,313,0.0,1.0,73,0.00,,,0.00,Wunderground v.1.15,2013-09-22 15:40:00,
2013-09-22 11:44:00,55.8,46.9,30.06,NW,312,3.0,3.0,72,0.00,,,0.00,Wunderground v.1.15,2013-09-22 15:44:00,
2013-09-22 11:45:00,55.7,47.9,30.06,NW,311,1.0,3.0,75,0.00,,,0.00,Wunderground v.1.15,2013-09-22 15:45:00,
2013-09-22 11:46:00,55.7,47.9,30.07,WNW,286,3.0,4.0,75,0.00,,,0.00,Wunderground v.1.15,2013-09-22 15:46:00,
2013-09-22 11:49:00,55.6,47.8,30.07,NNW,327,4.0,4.0,75,0.00,,,0.00,Wunderground v.1.15,2013-09-22 15:49:00,
2013-09-22 11:51:00,55.7,47.9,30.06,WNW,296,1.0,4.0,75,0.00,,,0.00,Wunderground v.1.15,2013-09-22 15:51:00,
2013-09-22 11:52:00,55.7,48.6,30.06,West,260,2.0,4.0,77,0.00,,,0.00,Wunderground v.1.15,2013-09-22 15:52:00,
2013-09-22 11:54:00,55.8,48.0,30.06,WSW,256,1.0,5.0,75,0.00,,,0.00,Wunderground v.1.15,2013-09-22 15:54:00,
2013-09-22 11:55:00,55.7,48.2,30.06,WSW,257,2.0,5.0,76,0.00,,,0.00,Wunderground v.1.15,2013-09-22 15:55:00,
2013-09-22 11:56:00,55.7,47.5,30.06,WNW,288,0.0,7.0,74,0.00,,,0.00,Wunderground v.1.15,2013-09-22 15:56:00,
2013-09-22 11:59:00,55.7,48.6,30.06,West,280,1.0,7.0,77,0.00,,,0.00,Wunderground v.1.15,2013-09-22 15:59:00,
2013-09-22 12:00:00,55.7,48.2,30.06,WNW,300,3.0,6.0,76,0.00,,,0.00,Wunderground v.1.15,2013-09-22 16:00:00,
2013-09-22 12:01:00,55.7,47.9,30.06,WNW,300,3.0,6.0,75,0.00,,,0.00,Wunderground v.1.15,2013-09-22 16:01:00,
2013-09-22 12:04:00,55.8,48.0,30.06,WNW,294,2.0,6.0,75,0.00,,,0.00,Wunderground v.1.15,2013-09-22 16:04:00,
2013-09-22 12:05:00,55.8,48.0,30.06,NW,306,5.0,6.0,75,0.00,,,0.00,Wunderground v.1.15,2013-09-22 16:05:00,
2013-09-22 12:06:00,55.8,48.0,30.06,NW,309,0.0,6.0,75,0.00,,,0.00,Wunderground v.1.15,2013-09-22 16:06:00,
2013-09-22 12:09:00,55.9,48.4,30.06,NNW,341,5.0,6.0,76,0.00,,,0.00,Wunderground v.1.15,2013-09-22 16:09:00,
2013-09-22 12:10:00,55.9,48.1,30.06,NW,309,0.0,6.0,75,0.00,,,0.00,Wunderground v.1.15,2013-09-22 16:10:00,
2013-09-22 12:11:00,55.9,47.7,30.06,NW,309,0.0,6.0,74,0.00,,,0.00,Wunderground v.1.15,2013-09-22 16:11:00,
2013-09-22 12:15:00,55.9,48.4,30.06,West,273,1.0,6.0,76,0.00,,,0.00,Wunderground v.1.15,2013-09-22 16:15:00,
2013-09-22 12:16:00,56.0,48.9,30.06,West,275,1.0,6.0,77,0.00,,,0.00,Wunderground v.1.15,2013-09-22 16:16:00,
2013-09-22 12:20:00,56.1,47.9,30.06,WNW,293,3.0,4.0,74,0.00,,,0.00,Wunderground v.1.15,2013-09-22 16:20:00,
2013-09-22 12:21:00,56.2,49.1,30.07,WNW,290,5.0,5.0,77,0.00,,,0.00,Wunderground v.1.15,2013-09-22 16:21:00,
2013-09-22 12:22:00,56.2,49.1,30.07,NNW,348,1.0,5.0,77,0.00,,,0.00,Wunderground v.1.15,2013-09-22 16:22:00,
2013-09-22 12:25:00,56.3,48.1,30.06,WNW,290,1.0,5.0,74,0.00,,,0.00,Wunderground v.1.15,2013-09-22 16:25:00,
2013-09-22 12:26:00,56.4,48.6,30.07,North,355,6.0,6.0,75,0.00,,,0.00,Wunderground v.1.15,2013-09-22 16:26:00,
2013-09-22 12:27:00,56.4,48.2,30.07,NNW,329,1.0,6.0,74,0.00,,,0.00,Wunderground v.1.15,2013-09-22 16:27:00,
2013-09-22 12:30:00,56.5,48.7,30.07,NW,316,3.0,7.0,75,0.00,,,0.00,Wunderground v.1.15,2013-09-22 16:30:00,
2013-09-22 12:31:00,56.5,49.0,30.07,NW,315,4.0,7.0,76,0.00,,,0.00,Wunderground v.1.15,2013-09-22 16:31:00,
2013-09-22 12:32:00,56.6,48.0,30.07,NNW,335,3.0,7.0,73,0.00,,,0.00,Wunderground v.1.15,2013-09-22 16:32:00,
2013-09-22 12:33:00,56.6,47.7,30.07,NNW,340,0.0,7.0,72,0.00,,,0.00,Wunderground v.1.15,2013-09-22 16:33:00,
2013-09-22 12:36:00,56.5,48.3,30.07,West,274,3.0,7.0,74,0.00,,,0.00,Wunderground v.1.15,2013-09-22 16:36:00,
2013-09-22 12:37:00,56.4,48.6,30.07,NNW,342,2.0,7.0,75,0.00,,,0.00,Wunderground v.1.15,2013-09-22 16:37:00,
2013-09-22 12:38:00,56.4,48.2,30.07,NW,315,2.0,8.0,74,0.00,,,0.00,Wunderground v.1.15,2013-09-22 16:38:00,
2013-09-22 12:42:00,56.2,48.0,30.07,NW,309,5.0,7.0,74,0.00,,,0.00,Wunderground v.1.15,2013-09-22 16:42:00,
2013-09-22 12:43:00,56.2,48.0,30.07,NNE,19,0.0,7.0,74,0.00,,,0.00,Wunderground v.1.15,2013-09-22 16:43:00,
2013-09-22 12:47:00,56.1,47.6,30.07,NNW,327,3.0,7.0,73,0.00,,,0.00,Wunderground v.1.15,2013-09-22 16:47:00,
2013-09-22 12:49:00,56.1,47.6,30.07,North,9,1.0,7.0,73,0.00,,,0.00,Wunderground v.1.15,2013-09-22 16:49:00,
2013-09-22 12:52:00,56.2,48.4,30.07,NW,323,3.0,7.0,75,0.00,,,0.00,Wunderground v.1.15,2013-09-22 16:52:00,
2013-09-22 12:53:00,56.3,48.1,30.07,West,272,4.0,7.0,74,0.00,,,0.00,Wunderground v.1.15,2013-09-22 16:53:00,
2013-09-22 12:55:00,56.3,49.2,30.07,West,281,0.0,7.0,77,0.00,,,0.00,Wunderground v.1.15,2013-09-22 16:55:00,
2013-09-22 12:57:00,56.3,49.2,30.07,North,360,0.0,9.0,77,0.00,,,0.00,Wunderground v.1.15,2013-09-22 16:57:00,
2013-09-22 12:58:00,56.3,48.5,30.07,NW,319,3.0,9.0,75,0.00,,,0.00,Wunderground v.1.15,2013-09-22 16:58:00,
2013-09-22 13:00:00,56.3,48.8,30.06,WNW,286,2.0,3.0,76,0.00,,,0.00,Wunderground v.1.15,2013-09-22 17:00:00,
2013-09-22 13:02:00,56.3,48.5,30.06,NW,317,4.0,5.0,75,0.00,,,0.00,Wunderground v.1.15,2013-09-22 17:02:00,
2013-09-22 13:03:00,56.2,48.0,30.06,North,355,4.0,6.0,74,0.00,,,0.00,Wunderground v.1.15,2013-09-22 17:03:00,
2013-09-22 13:05:00,56.3,48.1,30.07,NNW,346,0.0,6.0,74,0.00,,,0.00,Wunderground v.1.15,2013-09-22 17:05:00,
2013-09-22 13:07:00,56.5,47.9,30.06,East,84,1.0,7.0,73,0.00,,,0.00,Wunderground v.1.15,2013-09-22 17:07:00,
2013-09-22 13:09:00,56.4,47.5,30.06,NW,319,3.0,7.0,72,0.00,,,0.00,Wunderground v.1.15,2013-09-22 17:09:00,
2013-09-22 13:10:00,56.5,47.6,30.06,North,355,0.0,2.0,72,0.00,,,0.00,Wunderground v.1.15,2013-09-22 17:10:00,
2013-09-22 13:12:00,56.6,48.4,30.06,WNW,301,4.0,7.0,74,0.00,,,0.00,Wunderground v.1.15,2013-09-22 17:12:00,
2013-09-22 13:14:00,56.6,47.7,30.06,NNW,334,1.0,7.0,72,0.00,,,0.00,Wunderground v.1.15,2013-09-22 17:14:00,
2013-09-22 13:15:00,56.6,47.7,30.06,NW,322,0.0,9.0,72,0.00,,,0.00,Wunderground v.1.15,2013-09-22 17:15:00,
2013-09-22 13:17:00,56.7,48.5,30.06,NW,318,0.0,10.0,74,0.00,,,0.00,Wunderground v.1.15,2013-09-22 17:17:00,
2013-09-22 13:19:00,56.7,48.1,30.06,WNW,300,3.0,10.0,73,0.00,,,0.00,Wunderground v.1.15,2013-09-22 17:19:00,
2013-09-22 13:21:00,56.7,48.1,30.06,NW,306,6.0,6.0,73,0.00,,,0.00,Wunderground v.1.15,2013-09-22 17:21:00,
2013-09-22 13:22:00,56.8,48.2,30.06,NW,320,1.0,6.0,73,0.00,,,0.00,Wunderground v.1.15,2013-09-22 17:22:00,
2013-09-22 13:24:00,56.7,47.8,30.06,NW,309,2.0,6.0,72,0.00,,,0.00,Wunderground v.1.15,2013-09-22 17:24:00,
2013-09-22 13:26:00,56.7,47.8,30.06,WNW,284,4.0,8.0,72,0.00,,,0.00,Wunderground v.1.15,2013-09-22 17:26:00,
2013-09-22 13:28:00,56.9,48.7,30.06,WSW,249,3.0,8.0,74,0.00,,,0.00,Wunderground v.1.15,2013-09-22 17:28:00,
2013-09-22 13:29:00,56.9,49.4,30.06,West,281,3.0,8.0,76,0.00,,,0.00,Wunderground v.1.15,2013-09-22 17:29:00,
2013-09-22 13:32:00,57.0,48.4,30.06,NNW,333,2.0,10.0,73,0.00,,,0.00,Wunderground v.1.15,2013-09-22 17:32:00,
2013-09-22 13:34:00,57.0,48.4,30.06,NW,310,1.0,10.0,73,0.00,,,0.00,Wunderground v.1.15,2013-09-22 17:34:00,
2013-09-22 13:37:00,57.2,48.6,30.06,NW,310,1.0,10.0,73,0.00,,,0.00,Wunderground v.1.15,2013-09-22 17:37:00,
2013-09-22 13:39:00,57.2,48.3,30.06,ENE,57,3.0,10.0,72,0.00,,,0.00,Wunderground v.1.15,2013-09-22 17:39:00,
2013-09-22 13:42:00,57.2,47.5,30.06,WSW,244,1.0,7.0,70,0.00,,,0.00,Wunderground v.1.15,2013-09-22 17:42:00,
2013-09-22 13:44:00,57.2,47.5,30.06,WSW,248,4.0,8.0,70,0.00,,,0.00,Wunderground v.1.15,2013-09-22 17:44:00,
2013-09-22 13:47:00,57.3,47.6,30.06,West,260,1.0,9.0,70,0.00,,,0.00,Wunderground v.1.15,2013-09-22 17:47:00,
2013-09-22 13:48:00,57.4,47.7,30.06,NNW,338,1.0,9.0,70,0.00,,,0.00,Wunderground v.1.15,2013-09-22 17:48:00,
2013-09-22 13:49:00,57.4,48.4,30.06,ENE,61,1.0,9.0,72,0.00,,,0.00,Wunderground v.1.15,2013-09-22 17:49:00,
2013-09-22 13:50:00,57.5,47.8,30.06,West,264,5.0,5.0,70,0.00,,,0.00,Wunderground v.1.15,2013-09-22 17:50:00,
2013-09-22 13:52:00,57.5,47.4,30.06,NW,305,4.0,7.0,69,0.00,,,0.00,Wunderground v.1.15,2013-09-22 17:52:00,
2013-09-22 13:53:00,57.6,47.9,30.06,NNW,337,7.0,7.0,70,0.00,,,0.00,Wunderground v.1.15,2013-09-22 17:53:00,
2013-09-22 13:54:00,57.6,47.9,30.06,East,91,3.0,11.0,70,0.00,,,0.00,Wunderground v.1.15,2013-09-22 17:54:00,
2013-09-22 13:55:00,57.7,47.6,30.06,NW,317,4.0,11.0,69,0.00,,,0.00,Wunderground v.1.15,2013-09-22 17:55:00,
2013-09-22 13:57:00,57.8,48.5,30.06,WNW,299,1.0,11.0,71,0.00,,,0.00,Wunderground v.1.15,2013-09-22 17:57:00,
2013-09-22 13:58:00,57.9,48.6,30.06,WNW,300,2.0,11.0,71,0.00,,,0.00,Wunderground v.1.15,2013-09-22 17:58:00,
2013-09-22 13:59:00,58.0,48.6,30.06,NW,311,0.0,11.0,71,0.00,,,0.00,Wunderground v.1.15,2013-09-22 17:59:00,
2013-09-22 14:00:00,58.0,47.9,30.06,SW,228,2.0,5.0,69,0.00,,,0.00,Wunderground v.1.15,2013-09-22 18:00:00,
2013-09-22 14:02:00,58.0,47.9,30.06,NW,306,9.0,11.0,69,0.00,,,0.00,Wunderground v.1.15,2013-09-22 18:02:00,
2013-09-22 14:03:00,57.9,47.4,30.06,WNW,294,2.0,11.0,68,0.00,,,0.00,Wunderground v.1.15,2013-09-22 18:03:00,
2013-09-22 14:04:00,57.9,48.2,30.06,WSW,257,1.0,11.0,70,0.00,,,0.00,Wunderground v.1.15,2013-09-22 18:04:00,
2013-09-22 14:06:00,58.1,48.7,30.06,NNE,32,2.0,11.0,71,0.00,,,0.00,Wunderground v.1.15,2013-09-22 18:06:00,
2013-09-22 14:09:00,58.2,47.7,30.06,NW,312,4.0,11.0,68,0.00,,,0.00,Wunderground v.1.15,2013-09-22 18:09:00,
2013-09-22 14:11:00,58.4,47.9,30.06,WNW,302,0.0,7.0,68,0.00,,,0.00,Wunderground v.1.15,2013-09-22 18:11:00,
2013-09-22 14:14:00,58.6,47.7,30.06,NNW,339,2.0,7.0,67,0.00,,,0.00,Wunderground v.1.15,2013-09-22 18:14:00,
2013-09-22 14:15:00,58.6,48.1,30.06,West,278,1.0,7.0,68,0.00,,,0.00,Wunderground v.1.15,2013-09-22 18:15:00,
2013-09-22 14:16:00,58.7,48.6,30.05,NW,312,7.0,7.0,69,0.00,,,0.00,Wunderground v.1.15,2013-09-22 18:16:00,
2013-09-22 14:19:00,58.9,48.7,30.05,West,278,5.0,7.0,69,0.00,,,0.00,Wunderground v.1.15,2013-09-22 18:19:00,
2013-09-22 14:20:00,58.8,47.9,30.05,WNW,299,3.0,9.0,67,0.00,,,0.00,Wunderground v.1.15,2013-09-22 18:20:00,
2013-09-22 14:21:00,58.7,47.4,30.05,NE,44,1.0,9.0,66,0.00,,,0.00,Wunderground v.1.15,2013-09-22 18:21:00,
2013-09-22 14:24:00,58.8,47.9,30.05,WNW,299,4.0,9.0,67,0.00,,,0.00,Wunderground v.1.15,2013-09-22 18:24:00,
2013-09-22 14:25:00,58.9,48.7,30.05,NNW,334,3.0,9.0,69,0.00,,,0.00,Wunderground v.1.15,2013-09-22 18:25:00,
2013-09-22 14:26:00,58.9,47.6,30.05,West,281,1.0,9.0,66,0.00,,,0.00,Wunderground v.1.15,2013-09-22 18:26:00,
2013-09-22 14:29:00,59.3,47.5,30.05,NNW,336,0.0,9.0,65,0.00,,,0.00,Wunderground v.1.15,2013-09-22 18:29:00,
2013-09-22 14:30:00,59.3,47.9,30.05,WNW,293,1.0,3.0,66,0.00,,,0.00,Wunderground v.1.15,2013-09-22 18:30:00,
2013-09-22 14:32:00,59.2,48.2,30.05,NNW,345,4.0,7.0,67,0.00,,,0.00,Wunderground v.1.15,2013-09-22 18:32:00,
2013-09-22 14:35:00,59.3,48.3,30.05,West,272,2.0,7.0,67,0.00,,,0.00,Wunderground v.1.15,2013-09-22 18:35:00,
2013-09-22 14:38:00,59.0,48.1,30.05,WNW,283,3.0,15.0,67,0.00,,,0.00,Wunderground v.1.15,2013-09-22 18:38:00,
2013-09-22 14:40:00,59.1,48.5,30.05,NW,309,4.0,5.0,68,0.00,,,0.00,Wunderground v.1.15,2013-09-22 18:40:00,
2013-09-22 14:43:00,59.3,49.1,30.05,NNE,22,2.0,10.0,69,0.00,,,0.00,Wunderground v.1.15,2013-09-22 18:43:00,
2013-09-22 14:45:00,59.4,48.8,30.05,NW,311,2.0,10.0,68,0.00,,,0.00,Wunderground v.1.15,2013-09-22 18:45:00,
2013-09-22 14:48:00,59.4,47.6,30.05,NNW,343,4.0,10.0,65,0.00,,,0.00,Wunderground v.1.15,2013-09-22 18:48:00,
2013-09-22 14:50:00,59.5,48.9,30.05,North,351,0.0,2.0,68,0.00,,,0.00,Wunderground v.1.15,2013-09-22 18:50:00,
2013-09-22 14:51:00,59.6,48.2,30.05,NW,314,2.0,5.0,66,0.00,,,0.00,Wunderground v.1.15,2013-09-22 18:51:00,
2013-09-22 14:54:00,59.4,48.4,30.05,West,268,0.0,6.0,67,0.00,,,0.00,Wunderground v.1.15,2013-09-22 18:54:00,
2013-09-22 14:55:00,59.6,49.4,30.05,West,261,2.0,6.0,69,0.00,,,0.00,Wunderground v.1.15,2013-09-22 18:55:00,
2013-09-22 14:56:00,59.8,49.6,30.05,North,11,3.0,7.0,69,0.00,,,0.00,Wunderground v.1.15,2013-09-22 18:56:00,
2013-09-22 14:59:00,60.3,48.5,30.05,West,269,4.0,7.0,65,0.00,,,0.00,Wunderground v.1.15,2013-09-22 18:59:00,
2013-09-22 15:00:00,60.2,48.8,30.05,WNW,301,3.0,5.0,66,0.00,,,0.00,Wunderground v.1.15,2013-09-22 19:00:00,
2013-09-22 15:01:00,60.1,48.7,30.05,WSW,256,1.0,5.0,66,0.00,,,0.00,Wunderground v.1.15,2013-09-22 19:01:00,
2013-09-22 15:02:00,60.0,48.6,30.05,WSW,256,0.0,5.0,66,0.00,,,0.00,Wunderground v.1.15,2013-09-22 19:02:00,
2013-09-22 15:04:00,59.8,49.2,30.05,West,268,0.0,5.0,68,0.00,,,0.00,Wunderground v.1.15,2013-09-22 19:04:00,
2013-09-22 15:05:00,59.8,48.8,30.05,West,268,1.0,5.0,67,0.00,,,0.00,Wunderground v.1.15,2013-09-22 19:05:00,
2013-09-22 15:07:00,59.6,49.4,30.05,WNW,288,1.0,5.0,69,0.00,,,0.00,Wunderground v.1.15,2013-09-22 19:07:00,
2013-09-22 15:10:00,59.4,47.2,30.05,NNW,343,0.0,5.0,64,0.00,,,0.00,Wunderground v.1.15,2013-09-22 19:10:00,
2013-09-22 15:12:00,59.7,49.1,30.05,WNW,290,0.0,7.0,68,0.00,,,0.00,Wunderground v.1.15,2013-09-22 19:12:00,
2013-09-22 15:15:00,60.3,48.5,30.05,WNW,289,5.0,7.0,65,0.00,,,0.00,Wunderground v.1.15,2013-09-22 19:15:00,
2013-09-22 15:16:00,60.2,48.4,30.05,NNW,346,4.0,9.0,65,0.00,,,0.00,Wunderground v.1.15,2013-09-22 19:16:00,
2013-09-22 15:17:00,60.0,48.6,30.05,NNW,347,4.0,9.0,66,0.00,,,0.00,Wunderground v.1.15,2013-09-22 19:17:00,
2013-09-22 15:18:00,60.1,48.7,30.05,WNW,285,3.0,9.0,66,0.00,,,0.00,Wunderground v.1.15,2013-09-22 19:18:00,
2013-09-22 15:20:00,59.6,47.0,30.05,NW,313,1.0,4.0,63,0.00,,,0.00,Wunderground v.1.15,2013-09-22 19:20:00,
2013-09-22 15:21:00,59.5,47.7,30.05,West,278,1.0,4.0,65,0.00,,,0.00,Wunderground v.1.15,2013-09-22 19:21:00,
2013-09-22 15:23:00,59.6,48.2,30.05,West,271,0.0,4.0,66,0.00,,,0.00,Wunderground v.1.15,2013-09-22 19:23:00,
2013-09-22 15:26:00,59.7,47.1,30.05,North,10,1.0,7.0,63,0.00,,,0.00,Wunderground v.1.15,2013-09-22 19:26:00,
2013-09-22 15:28:00,60.3,48.9,30.05,ENE,66,4.0,7.0,66,0.00,,,0.00,Wunderground v.1.15,2013-09-22 19:28:00,
2013-09-22 15:31:00,60.0,48.6,30.05,NNW,347,3.0,6.0,66,0.00,,,0.00,Wunderground v.1.15,2013-09-22 19:31:00,
2013-09-22 15:33:00,59.5,48.1,30.05,NW,312,4.0,6.0,66,0.00,,,0.00,Wunderground v.1.15,2013-09-22 19:33:00,
2013-09-22 15:36:00,59.9,48.1,30.05,NNW,341,0.0,7.0,65,0.00,,,0.00,Wunderground v.1.15,2013-09-22 19:36:00,
2013-09-22 15:37:00,59.9,48.5,30.05,North,10,3.0,7.0,66,0.00,,,0.00,Wunderground v.1.15,2013-09-22 19:37:00,
2013-09-22 15:38:00,59.8,48.0,30.05,NNW,344,4.0,7.0,65,0.00,,,0.00,Wunderground v.1.15,2013-09-22 19:38:00,
2013-09-22 15:41:00,60.0,49.4,30.05,NW,311,0.0,5.0,68,0.00,,,0.00,Wunderground v.1.15,2013-09-22 19:41:00,
2013-09-22 15:42:00,60.4,48.2,30.05,NNW,330,2.0,5.0,64,0.00,,,0.00,Wunderground v.1.15,2013-09-22 19:42:00,
2013-09-22 15:44:00,60.4,47.7,30.05,ESE,120,5.0,5.0,63,0.00,,,0.00,Wunderground v.1.15,2013-09-22 19:44:00,
2013-09-22 15:46:00,60.4,47.7,30.05,WNW,293,8.0,9.0,63,0.00,,,0.00,Wunderground v.1.15,2013-09-22 19:46:00,
2013-09-22 15:48:00,60.3,48.5,30.05,NE,38,0.0,9.0,65,0.00,,,0.00,Wunderground v.1.15,2013-09-22 19:48:00,
2013-09-22 15:49:00,60.4,49.0,30.05,NW,319,2.0,9.0,66,0.00,,,0.00,Wunderground v.1.15,2013-09-22 19:49:00,
2013-09-22 15:51:00,60.6,50.0,30.05,NNW,337,1.0,5.0,68,0.00,,,0.00,Wunderground v.1.15,2013-09-22 19:51:00,
2013-09-22 15:54:00,60.4,49.0,30.04,NW,317,2.0,5.0,66,0.00,,,0.00,Wunderground v.1.15,2013-09-22 19:54:00,
2013-09-22 15:55:00,60.1,48.3,30.05,NW,317,0.0,5.0,65,0.00,,,0.00,Wunderground v.1.15,2013-09-22 19:55:00,
2013-09-22 15:56:00,60.0,48.2,30.05,NNW,343,1.0,6.0,65,0.00,,,0.00,Wunderground v.1.15,2013-09-22 19:56:00,
2013-09-22 16:00:00,60.0,48.2,30.05,WNW,288,0.0,2.0,65,0.00,,,0.00,Wunderground v.1.15,2013-09-22 20:00:00,
2013-09-22 16:01:00,59.9,47.7,30.05,NW,314,1.0,6.0,64,0.00,,,0.00,Wunderground v.1.15,2013-09-22 20:01:00,
2013-09-22 16:05:00,60.1,49.5,30.05,NNW,332,6.0,6.0,68,0.00,,,0.00,Wunderground v.1.15,2013-09-22 20:05:00,
2013-09-22 16:06:00,60.1,47.9,30.05,East,84,2.0,6.0,64,0.00,,,0.00,Wunderground v.1.15,2013-09-22 20:06:00,
2013-09-22 16:10:00,59.8,48.0,30.04,WNW,303,2.0,4.0,65,0.00,,,0.00,Wunderground v.1.15,2013-09-22 20:10:00,
2013-09-22 16:11:00,60.0,48.2,30.04,NNW,341,3.0,4.0,65,0.00,,,0.00,Wunderground v.1.15,2013-09-22 20:11:00,
2013-09-22 16:12:00,60.0,48.2,30.04,NNW,341,2.0,4.0,65,0.00,,,0.00,Wunderground v.1.15,2013-09-22 20:12:00,
2013-09-22 16:15:00,60.2,49.6,30.04,North,355,3.0,6.0,68,0.00,,,0.00,Wunderground v.1.15,2013-09-22 20:15:00,
2013-09-22 16:17:00,60.0,47.8,30.05,WNW,301,6.0,6.0,64,0.00,,,0.00,Wunderground v.1.15,2013-09-22 20:17:00,
2013-09-22 16:20:00,60.0,49.4,30.04,North,9,2.0,4.0,68,0.00,,,0.00,Wunderground v.1.15,2013-09-22 20:20:00,
2013-09-22 16:21:00,60.1,49.5,30.04,NNW,328,3.0,4.0,68,0.00,,,0.00,Wunderground v.1.15,2013-09-22 20:21:00,
2013-09-22 16:22:00,60.1,48.7,30.04,NNW,328,1.0,4.0,66,0.00,,,0.00,Wunderground v.1.15,2013-09-22 20:22:00,
2013-09-22 16:23:00,59.9,48.5,30.04,NNW,328,0.0,4.0,66,0.00,,,0.00,Wunderground v.1.15,2013-09-22 20:23:00,
2013-09-22 16:26:00,59.7,47.9,30.04,North,9,1.0,6.0,65,0.00,,,0.00,Wunderground v.1.15,2013-09-22 20:26:00,
2013-09-22 16:27:00,59.9,49.3,30.04,NW,304,3.0,6.0,68,0.00,,,0.00,Wunderground v.1.15,2013-09-22 20:27:00,
2013-09-22 16:28:00,59.7,48.7,30.04,NNW,342,5.0,6.0,67,0.00,,,0.00,Wunderground v.1.15,2013-09-22 20:28:00,
2013-09-22 16:31:00,59.5,48.5,30.04,NW,315,1.0,4.0,67,0.00,,,0.00,Wunderground v.1.15,2013-09-22 20:31:00,
2013-09-22 16:32:00,59.5,49.7,30.04,NNE,31,0.0,4.0,70,0.00,,,0.00,Wunderground v.1.15,2013-09-22 20:32:00,
2013-09-22 16:33:00,59.3,48.3,30.04,NNW,331,5.0,5.0,67,0.00,,,0.00,Wunderground v.1.15,2013-09-22 20:33:00,
2013-09-22 16:36:00,59.2,48.6,30.04,North,351,3.0,7.0,68,0.00,,,0.00,Wunderground v.1.15,2013-09-22 20:36:00,
2013-09-22 16:37:00,59.5,48.5,30.04,NW,325,3.0,7.0,67,0.00,,,0.00,Wunderground v.1.15,2013-09-22 20:37:00,
2013-09-22 16:38:00,59.6,49.0,30.04,NNW,342,2.0,7.0,68,0.00,,,0.00,Wunderground v.1.15,2013-09-22 20:38:00,
2013-09-22 16:41:00,59.6,48.6,30.04,West,265,1.0,11.0,67,0.00,,,0.00,Wunderground v.1.15,2013-09-22 20:41:00,
2013-09-22 16:43:00,60.0,50.2,30.04,West,268,1.0,11.0,70,0.00,,,0.00,Wunderground v.1.15,2013-09-22 20:43:00,
2013-09-22 16:46:00,60.3,50.1,30.04,NW,323,3.0,11.0,69,0.00,,,0.00,Wunderground v.1.15,2013-09-22 20:46:00,
2013-09-22 16:47:00,60.1,48.7,30.04,NW,304,2.0,11.0,66,0.00,,,0.00,Wunderground v.1.15,2013-09-22 20:47:00,
2013-09-22 16:48:00,59.6,48.6,30.04,NW,319,2.0,11.0,67,0.00,,,0.00,Wunderground v.1.15,2013-09-22 20:48:00,
2013-09-22 16:51:00,59.1,48.5,30.04,NNW,329,1.0,5.0,68,0.00,,,0.00,Wunderground v.1.15,2013-09-22 20:51:00,
2013-09-22 16:52:00,59.1,48.5,30.04,NNE,15,1.0,5.0,68,0.00,,,0.00,Wunderground v.1.15,2013-09-22 20:52:00,
2013-09-22 16:53:00,59.2,50.2,30.04,NNE,19,2.0,5.0,72,0.00,,,0.00,Wunderground v.1.15,2013-09-22 20:53:00,
2013-09-22 16:56:00,59.5,49.7,30.04,WNW,293,2.0,10.0,70,0.00,,,0.00,Wunderground v.1.15,2013-09-22 20:56:00,
2013-09-22 16:57:00,59.4,49.6,30.04,NW,317,2.0,10.0,70,0.00,,,0.00,Wunderground v.1.15,2013-09-22 20:57:00,
2013-09-22 16:58:00,59.1,48.5,30.04,NW,317,0.0,10.0,68,0.00,,,0.00,Wunderground v.1.15,2013-09-22 20:58:00,
2013-09-22 16:59:00,58.9,48.0,30.04,NW,315,0.0,10.0,67,0.00,,,0.00,Wunderground v.1.15,2013-09-22 20:59:00,
2013-09-22 17:02:00,58.4,48.3,30.04,WNW,298,1.0,6.0,69,0.00,,,0.00,Wunderground v.1.15,2013-09-22 21:02:00,
2013-09-22 17:04:00,58.6,49.2,30.04,West,281,1.0,6.0,71,0.00,,,0.00,Wunderground v.1.15,2013-09-22 21:04:00,
2013-09-22 17:05:00,58.5,48.4,30.04,West,281,0.0,6.0,69,0.00,,,0.00,Wunderground v.1.15,2013-09-22 21:05:00,
2013-09-22 17:07:00,58.4,47.9,30.04,West,277,1.0,6.0,68,0.00,,,0.00,Wunderground v.1.15,2013-09-22 21:07:00,
2013-09-22 17:09:00,58.4,48.3,30.04,WNW,288,0.0,6.0,69,0.00,,,0.00,Wunderground v.1.15,2013-09-22 21:09:00,
2013-09-22 17:11:00,58.7,49.7,30.04,NNW,330,1.0,4.0,72,0.00,,,0.00,Wunderground v.1.15,2013-09-22 21:11:00,
2013-09-22 17:12:00,58.9,49.5,30.04,West,281,0.0,4.0,71,0.00,,,0.00,Wunderground v.1.15,2013-09-22 21:12:00,
2013-09-22 17:14:00,58.7,48.2,30.04,NNW,329,2.0,7.0,68,0.00,,,0.00,Wunderground v.1.15,2013-09-22 21:14:00,
2013-09-22 17:16:00,59.1,49.3,30.04,NW,325,1.0,7.0,70,0.00,,,0.00,Wunderground v.1.15,2013-09-22 21:16:00,
2013-09-22 17:17:00,59.7,51.4,30.04,West,279,2.0,7.0,74,0.00,,,0.00,Wunderground v.1.15,2013-09-22 21:17:00,
2013-09-22 17:19:00,59.8,49.2,30.04,ENE,59,1.0,7.0,68,0.00,,,0.00,Wunderground v.1.15,2013-09-22 21:19:00,
2013-09-22 17:21:00,59.0,48.4,30.04,WNW,294,0.0,5.0,68,0.00,,,0.00,Wunderground v.1.15,2013-09-22 21:21:00,
2013-09-22 17:23:00,58.7,49.7,30.04,WNW,301,1.0,5.0,72,0.00,,,0.00,Wunderground v.1.15,2013-09-22 21:23:00,
2013-09-22 17:24:00,58.6,49.2,30.04,West,276,3.0,5.0,71,0.00,,,0.00,Wunderground v.1.15,2013-09-22 21:24:00,
2013-09-22 17:27:00,58.4,48.7,30.04,West,277,0.0,5.0,70,0.00,,,0.00,Wunderground v.1.15,2013-09-22 21:27:00,
2013-09-22 17:28:00,58.2,49.2,30.04,West,277,1.0,5.0,72,0.00,,,0.00,Wunderground v.1.15,2013-09-22 21:28:00,
2013-09-22 17:29:00,58.5,50.6,30.04,West,277,0.0,5.0,75,0.00,,,0.00,Wunderground v.1.15,2013-09-22 21:29:00,
2013-09-22 17:32:00,58.5,49.1,30.04,WNW,295,5.0,5.0,71,0.00,,,0.00,Wunderground v.1.15,2013-09-22 21:32:00,
2013-09-22 17:33:00,58.5,48.4,30.04,WNW,294,0.0,5.0,69,0.00,,,0.00,Wunderground v.1.15,2013-09-22 21:33:00,
2013-09-22 17:34:00,58.7,49.7,30.04,WNW,294,1.0,5.0,72,0.00,,,0.00,Wunderground v.1.15,2013-09-22 21:34:00,
2013-09-22 17:35:00,58.9,50.6,30.04,WSW,240,2.0,5.0,74,0.00,,,0.00,Wunderground v.1.15,2013-09-22 21:35:00,
2013-09-22 17:37:00,58.4,48.3,30.04,NNW,332,2.0,5.0,69,0.00,,,0.00,Wunderground v.1.15,2013-09-22 21:37:00,
2013-09-22 17:38:00,58.1,47.6,30.04,NW,310,0.0,6.0,68,0.00,,,0.00,Wunderground v.1.15,2013-09-22 21:38:00,
2013-09-22 17:39:00,58.1,48.4,30.04,WNW,302,2.0,6.0,70,0.00,,,0.00,Wunderground v.1.15,2013-09-22 21:39:00,
2013-09-22 17:40:00,58.2,47.7,30.04,NW,316,0.0,1.0,68,0.00,,,0.00,Wunderground v.1.15,2013-09-22 21:40:00,
2013-09-22 17:42:00,58.7,49.3,30.04,NNW,330,2.0,7.0,71,0.00,,,0.00,Wunderground v.1.15,2013-09-22 21:42:00,
2013-09-22 17:43:00,59.0,49.2,30.04,NNW,330,0.0,10.0,70,0.00,,,0.00,Wunderground v.1.15,2013-09-22 21:43:00,
2013-09-22 17:44:00,59.2,50.2,30.04,NNW,330,0.0,10.0,72,0.00,,,0.00,Wunderground v.1.15,2013-09-22 21:44:00,
2013-09-22 17:45:00,59.4,50.0,30.04,NNW,330,1.0,10.0,71,0.00,,,0.00,Wunderground v.1.15,2013-09-22 21:45:00,
2013-09-22 17:48:00,59.7,49.9,30.04,WSW,240,1.0,10.0,70,0.00,,,0.00,Wunderground v.1.15,2013-09-22 21:48:00,
2013-09-22 17:49:00,59.6,49.4,30.04,WNW,293,0.0,10.0,69,0.00,,,0.00,Wunderground v.1.15,2013-09-22 21:49:00,
2013-09-22 17:50:00,59.1,48.9,30.04,NW,309,3.0,4.0,69,0.00,,,0.00,Wunderground v.1.15,2013-09-22 21:50:00,
2013-09-22 17:53:00,59.0,48.4,30.04,NW,313,1.0,4.0,68,0.00,,,0.00,Wunderground v.1.15,2013-09-22 21:53:00,
2013-09-22 17:54:00,59.1,50.5,30.04,West,265,0.0,4.0,73,0.00,,,0.00,Wunderground v.1.15,2013-09-22 21:54:00,
2013-09-22 17:55:00,59.2,49.8,30.04,West,265,0.0,4.0,71,0.00,,,0.00,Wunderground v.1.15,2013-09-22 21:55:00,
2013-09-22 17:58:00,59.0,49.2,30.04,NW,313,1.0,6.0,70,0.00,,,0.00,Wunderground v.1.15,2013-09-22 21:58:00,
2013-09-22 17:59:00,59.2,50.2,30.04,NW,306,0.0,6.0,72,0.00,,,0.00,Wunderground v.1.15,2013-09-22 21:59:00,
2013-09-22 18:00:00,59.2,50.2,30.04,ENE,61,2.0,3.0,72,0.00,,,0.00,Wunderground v.1.15,2013-09-22 22:00:00,
2013-09-22 18:03:00,59.3,49.1,30.04,West,278,0.0,7.0,69,0.00,,,0.00,Wunderground v.1.15,2013-09-22 22:03:00,
2013-09-22 18:04:00,59.3,49.5,30.04,West,277,2.0,7.0,70,0.00,,,0.00,Wunderground v.1.15,2013-09-22 22:04:00,
2013-09-22 18:05:00,59.2,49.4,30.04,NW,319,3.0,7.0,70,0.00,,,0.00,Wunderground v.1.15,2013-09-22 22:05:00,
2013-09-22 18:06:00,59.2,49.0,30.04,WNW,286,0.0,7.0,69,0.00,,,0.00,Wunderground v.1.15,2013-09-22 22:06:00,
2013-09-22 18:08:00,58.9,49.1,30.04,NNW,333,4.0,7.0,70,0.00,,,0.00,Wunderground v.1.15,2013-09-22 22:08:00,
2013-09-22 18:10:00,58.3,48.2,30.04,North,355,4.0,4.0,69,0.00,,,0.00,Wunderground v.1.15,2013-09-22 22:10:00,
2013-09-22 18:11:00,57.9,47.4,30.04,WNW,300,0.0,4.0,68,0.00,,,0.00,Wunderground v.1.15,2013-09-22 22:11:00,
2013-09-22 18:14:00,57.7,48.7,30.04,North,9,0.0,4.0,72,0.00,,,0.00,Wunderground v.1.15,2013-09-22 22:14:00,
2013-09-22 18:15:00,57.8,49.9,30.04,WSW,246,4.0,4.0,75,0.00,,,0.00,Wunderground v.1.15,2013-09-22 22:15:00,
2013-09-22 18:16:00,57.8,49.9,30.04,SW,225,2.0,4.0,75,0.00,,,0.00,Wunderground v.1.15,2013-09-22 22:16:00,
2013-09-22 18:19:00,57.2,48.3,30.04,ENE,65,3.0,10.0,72,0.00,,,0.00,Wunderground v.1.15,2013-09-22 22:19:00,
2013-09-22 18:20:00,57.0,47.7,30.04,NNW,332,1.0,6.0,71,0.00,,,0.00,Wunderground v.1.15,2013-09-22 22:20:00,
2013-09-22 18:21:00,57.0,47.7,30.04,NW,313,2.0,6.0,71,0.00,,,0.00,Wunderground v.1.15,2013-09-22 22:21:00,
2013-09-22 18:24:00,56.9,48.7,30.04,WNW,296,0.0,6.0,74,0.00,,,0.00,Wunderground v.1.15,2013-09-22 22:24:00,
2013-09-22 18:25:00,56.9,48.0,30.04,North,351,2.0,6.0,72,0.00,,,0.00,Wunderground v.1.15,2013-09-22 22:25:00,
2013-09-22 18:26:00,56.8,47.9,30.04,NNE,19,8.0,8.0,72,0.00,,,0.00,Wunderground v.1.15,2013-09-22 22:26:00,
2013-09-22 18:31:00,56.7,48.9,30.04,NW,311,2.0,3.0,75,0.00,,,0.00,Wunderground v.1.15,2013-09-22 22:31:00,
2013-09-22 18:32:00,56.6,48.4,30.04,NNW,331,0.0,10.0,74,0.00,,,0.00,Wunderground v.1.15,2013-09-22 22:32:00,
2013-09-22 18:36:00,56.6,48.0,30.04,NW,309,0.0,10.0,73,0.00,,,0.00,Wunderground v.1.15,2013-09-22 22:36:00,
2013-09-22 18:37:00,56.5,48.3,30.04,WNW,300,0.0,10.0,74,0.00,,,0.00,Wunderground v.1.15,2013-09-22 22:37:00,
2013-09-22 18:41:00,56.2,47.7,30.04,WNW,287,1.0,4.0,73,0.00,,,0.00,Wunderground v.1.15,2013-09-22 22:41:00,
2013-09-22 18:42:00,56.2,47.7,30.04,NNW,328,2.0,4.0,73,0.00,,,0.00,Wunderground v.1.15,2013-09-22 22:42:00,
2013-09-22 18:46:00,55.9,47.4,30.04,NNW,347,0.0,6.0,73,0.00,,,0.00,Wunderground v.1.15,2013-09-22 22:46:00,
2013-09-22 18:47:00,55.9,47.7,30.04,NNW,347,1.0,6.0,74,0.00,,,0.00,Wunderground v.1.15,2013-09-22 22:47:00,
2013-09-22 18:51:00,55.7,47.9,30.04,WSW,237,4.0,7.0,75,0.00,,,0.00,Wunderground v.1.15,2013-09-22 22:51:00,
2013-09-22 18:52:00,55.7,48.2,30.04,ENE,70,2.0,7.0,76,0.00,,,0.00,Wunderground v.1.15,2013-09-22 22:52:00,
2013-09-22 18:53:00,55.8,47.3,30.05,NW,315,1.0,7.0,73,0.00,,,0.00,Wunderground v.1.15,2013-09-22 22:53:00,
2013-09-22 18:57:00,55.6,47.1,30.05,North,9,0.0,7.0,73,0.00,,,0.00,Wunderground v.1.15,2013-09-22 22:57:00,
2013-09-22 18:58:00,55.5,47.0,30.05,NNW,347,3.0,7.0,73,0.00,,,0.00,Wunderground v.1.15,2013-09-22 22:58:00,
2013-09-22 19:02:00,55.5,47.0,30.05,NW,325,0.0,6.0,73,0.00,,,0.00,Wunderground v.1.15,2013-09-22 23:02:00,
2013-09-22 19:03:00,55.5,47.0,30.05,NW,325,1.0,6.0,73,0.00,,,0.00,Wunderground v.1.15,2013-09-22 23:03:00,
2013-09-22 19:07:00,55.5,47.7,30.05,NW,308,0.0,6.0,75,0.00,,,0.00,Wunderground v.1.15,2013-09-22 23:07:00,
2013-09-22 19:08:00,55.5,47.3,30.05,NNW,333,6.0,7.0,74,0.00,,,0.00,Wunderground v.1.15,2013-09-22 23:08:00,
2013-09-22 19:10:00,55.5,47.7,30.05,NNW,348,1.0,2.0,75,0.00,,,0.00,Wunderground v.1.15,2013-09-22 23:10:00,
2013-09-22 19:12:00,55.7,48.6,30.05,WNW,297,3.0,5.0,77,0.00,,,0.00,Wunderground v.1.15,2013-09-22 23:12:00,
2013-09-22 19:14:00,55.8,48.7,30.05,WNW,288,0.0,6.0,77,0.00,,,0.00,Wunderground v.1.15,2013-09-22 23:14:00,
2013-09-22 19:15:00,55.8,48.7,30.05,WNW,296,1.0,6.0,77,0.00,,,0.00,Wunderground v.1.15,2013-09-22 23:15:00,
2013-09-22 19:17:00,55.8,49.0,30.05,West,273,0.0,6.0,78,0.00,,,0.00,Wunderground v.1.15,2013-09-22 23:17:00,
2013-09-22 19:20:00,55.8,48.7,30.05,WNW,286,1.0,3.0,77,0.00,,,0.00,Wunderground v.1.15,2013-09-22 23:20:00,
2013-09-22 19:22:00,55.7,47.9,30.05,NNW,327,2.0,6.0,75,0.00,,,0.00,Wunderground v.1.15,2013-09-22 23:22:00,
2013-09-22 19:25:00,55.7,47.9,30.05,NW,309,4.0,6.0,75,0.00,,,0.00,Wunderground v.1.15,2013-09-22 23:25:00,
2013-09-22 19:27:00,55.8,48.3,30.05,NW,323,0.0,7.0,76,0.00,,,0.00,Wunderground v.1.15,2013-09-22 23:27:00,
2013-09-22 19:28:00,55.8,48.3,30.05,NW,323,1.0,7.0,76,0.00,,,0.00,Wunderground v.1.15,2013-09-22 23:28:00,
2013-09-22 19:30:00,55.8,48.0,30.05,North,9,0.0,10.0,75,0.00,,,0.00,Wunderground v.1.15,2013-09-22 23:30:00,
2013-09-22 19:33:00,55.7,47.9,30.05,NNW,336,1.0,10.0,75,0.00,,,0.00,Wunderground v.1.15,2013-09-22 23:33:00,
2013-09-22 19:36:00,55.4,47.2,30.05,North,350,0.0,10.0,74,0.00,,,0.00,Wunderground v.1.15,2013-09-22 23:36:00,
2013-09-22 19:38:00,55.1,47.0,30.05,North,350,0.0,10.0,74,0.00,,,0.00,Wunderground v.1.15,2013-09-22 23:38:00,
2013-09-22 19:41:00,54.8,46.3,30.05,East,96,1.0,5.0,73,0.00,,,0.00,Wunderground v.1.15,2013-09-22 23:41:00,
2013-09-22 19:43:00,54.8,47.0,30.05,North,355,0.0,5.0,75,0.00,,,0.00,Wunderground v.1.15,2013-09-22 23:43:00,
2013-09-22 19:46:00,54.8,47.4,30.05,NE,38,1.0,7.0,76,0.00,,,0.00,Wunderground v.1.15,2013-09-22 23:46:00,
2013-09-22 19:48:00,54.8,46.7,30.05,ESE,106,0.0,7.0,74,0.00,,,0.00,Wunderground v.1.15,2013-09-22 23:48:00,
2013-09-22 19:49:00,54.8,46.7,30.05,ESE,106,1.0,7.0,74,0.00,,,0.00,Wunderground v.1.15,2013-09-22 23:49:00,
2013-09-22 19:52:00,54.7,46.6,30.05,East,91,0.0,3.0,74,0.00,,,0.00,Wunderground v.1.15,2013-09-22 23:52:00,
2013-09-22 19:53:00,54.6,46.5,30.05,East,91,0.0,3.0,74,0.00,,,0.00,Wunderground v.1.15,2013-09-22 23:53:00,
2013-09-22 19:54:00,54.6,46.5,30.05,East,91,0.0,3.0,74,0.00,,,0.00,Wunderground v.1.15,2013-09-22 23:54:00,
2013-09-22 19:58:00,54.5,46.4,30.05,ESE,105,3.0,3.0,74,0.00,,,0.00,Wunderground v.1.15,2013-09-22 23:58:00,
2013-09-22 19:59:00,54.5,46.4,30.05,NNE,32,1.0,3.0,74,0.00,,,0.00,Wunderground v.1.15,2013-09-22 23:59:00,
2013-09-22 20:00:00,54.5,46.4,30.05,NNE,32,0.0,1.0,74,0.00,,,0.00,Wunderground v.1.15,2013-09-23 00:00:00,
2013-09-22 20:03:00,54.4,46.3,30.05,ENE,65,1.0,4.0,74,0.00,,,0.00,Wunderground v.1.15,2013-09-23 00:03:00,
2013-09-22 20:04:00,54.4,46.3,30.05,ENE,65,0.0,4.0,74,0.00,,,0.00,Wunderground v.1.15,2013-09-23 00:04:00,
2013-09-22 20:05:00,54.4,46.3,30.05,ENE,66,2.0,4.0,74,0.00,,,0.00,Wunderground v.1.15,2013-09-23 00:05:00,
2013-09-22 20:08:00,54.4,46.3,30.05,NE,41,0.0,4.0,74,0.00,,,0.00,Wunderground v.1.15,2013-09-23 00:08:00,
2013-09-22 20:09:00,54.4,46.3,30.05,East,81,0.0,4.0,74,0.00,,,0.00,Wunderground v.1.15,2013-09-23 00:09:00,
2013-09-22 20:10:00,54.4,46.3,30.05,East,81,1.0,1.0,74,0.00,,,0.00,Wunderground v.1.15,2013-09-23 00:10:00,
2013-09-22 20:14:00,54.4,46.3,30.05,East,80,0.0,2.0,74,0.00,,,0.00,Wunderground v.1.15,2013-09-23 00:14:00,
2013-09-22 20:15:00,54.4,46.3,30.05,East,81,1.0,3.0,74,0.00,,,0.00,Wunderground v.1.15,2013-09-23 00:15:00,
2013-09-22 20:16:00,54.4,46.3,30.05,East,81,0.0,3.0,74,0.00,,,0.00,Wunderground v.1.15,2013-09-23 00:16:00,
2013-09-22 20:19:00,54.3,46.2,30.05,North,9,0.0,3.0,74,0.00,,,0.00,Wunderground v.1.15,2013-09-23 00:19:00,
2013-09-22 20:20:00,54.3,45.8,30.05,North,9,0.0,0.0,73,0.00,,,0.00,Wunderground v.1.15,2013-09-23 00:20:00,
2013-09-22 20:21:00,54.3,46.2,30.05,NE,55,0.0,2.0,74,0.00,,,0.00,Wunderground v.1.15,2013-09-23 00:21:00,
2013-09-22 20:24:00,54.4,46.3,30.06,East,90,2.0,3.0,74,0.00,,,0.00,Wunderground v.1.15,2013-09-23 00:24:00,
2013-09-22 20:25:00,54.4,46.3,30.05,East,90,0.0,3.0,74,0.00,,,0.00,Wunderground v.1.15,2013-09-23 00:25:00,
2013-09-22 20:26:00,54.3,46.2,30.05,East,91,1.0,3.0,74,0.00,,,0.00,Wunderground v.1.15,2013-09-23 00:26:00,
2013-09-22 20:29:00,54.3,46.2,30.05,ENE,59,1.0,5.0,74,0.00,,,0.00,Wunderground v.1.15,2013-09-23 00:29:00,
2013-09-22 20:30:00,54.3,46.2,30.05,ENE,59,0.0,3.0,74,0.00,,,0.00,Wunderground v.1.15,2013-09-23 00:30:00,
2013-09-22 20:31:00,54.3,46.2,30.06,NE,53,1.0,3.0,74,0.00,,,0.00,Wunderground v.1.15,2013-09-23 00:31:00,
2013-09-22 20:34:00,54.3,46.2,30.06,ENE,78,0.0,3.0,74,0.00,,,0.00,Wunderground v.1.15,2013-09-23 00:34:00,
2013-09-22 20:36:00,54.2,46.4,30.06,ENE,75,0.0,3.0,75,0.00,,,0.00,Wunderground v.1.15,2013-09-23 00:36:00,
2013-09-22 20:37:00,54.2,46.4,30.05,ENE,75,0.0,3.0,75,0.00,,,0.00,Wunderground v.1.15,2013-09-23 00:37:00,
2013-09-22 20:39:00,54.1,46.3,30.06,North,350,0.0,6.0,75,0.00,,,0.00,Wunderground v.1.15,2013-09-23 00:39:00,
2013-09-22 20:41:00,54.0,46.3,30.06,North,350,0.0,0.0,75,0.00,,,0.00,Wunderground v.1.15,2013-09-23 00:41:00,
2013-09-22 20:43:00,54.0,46.3,30.06,North,360,0.0,1.0,75,0.00,,,0.00,Wunderground v.1.15,2013-09-23 00:43:00,
2013-09-22 20:44:00,54.0,46.3,30.06,ENE,71,1.0,2.0,75,0.00,,,0.00,Wunderground v.1.15,2013-09-23 00:44:00,
2013-09-22 20:46:00,53.9,46.2,30.06,ENE,71,1.0,2.0,75,0.00,,,0.00,Wunderground v.1.15,2013-09-23 00:46:00,
2013-09-22 20:47:00,53.9,46.2,30.06,East,87,0.0,2.0,75,0.00,,,0.00,Wunderground v.1.15,2013-09-23 00:47:00,
2013-09-22 20:48:00,53.9,46.2,30.06,East,87,0.0,2.0,75,0.00,,,0.00,Wunderground v.1.15,2013-09-23 00:48:00,
2013-09-22 20:49:00,53.9,46.2,30.06,East,87,0.0,2.0,75,0.00,,,0.00,Wunderground v.1.15,2013-09-23 00:49:00,
2013-09-22 20:51:00,53.8,46.4,30.06,East,87,0.0,1.0,76,0.00,,,0.00,Wunderground v.1.15,2013-09-23 00:51:00,
2013-09-22 20:52:00,53.7,46.3,30.06,East,87,1.0,1.0,76,0.00,,,0.00,Wunderground v.1.15,2013-09-23 00:52:00,
2013-09-22 20:53:00,53.6,46.2,30.06,East,87,0.0,1.0,76,0.00,,,0.00,Wunderground v.1.15,2013-09-23 00:53:00,
2013-09-22 20:54:00,53.5,46.1,30.06,East,94,1.0,2.0,76,0.00,,,0.00,Wunderground v.1.15,2013-09-23 00:54:00,
2013-09-22 20:56:00,53.3,46.3,30.06,East,94,0.0,2.0,77,0.00,,,0.00,Wunderground v.1.15,2013-09-23 00:56:00,
2013-09-22 20:57:00,53.2,46.2,30.06,East,94,0.0,2.0,77,0.00,,,0.00,Wunderground v.1.15,2013-09-23 00:57:00,
2013-09-22 20:59:00,53.1,46.1,30.06,East,94,0.0,2.0,77,0.00,,,0.00,Wunderground v.1.15,2013-09-23 00:59:00,
2013-09-22 21:02:00,52.9,45.9,30.06,East,94,0.0,2.0,77,0.00,,,0.00,Wunderground v.1.15,2013-09-23 01:02:00,
2013-09-22 21:03:00,52.9,46.2,30.06,East,94,1.0,2.0,78,0.00,,,0.00,Wunderground v.1.15,2013-09-23 01:03:00,
2013-09-22 21:04:00,52.8,46.1,30.06,East,94,0.0,2.0,78,0.00,,,0.00,Wunderground v.1.15,2013-09-23 01:04:00,
2013-09-22 21:07:00,52.6,45.9,30.06,East,97,1.0,3.0,78,0.00,,,0.00,Wunderground v.1.15,2013-09-23 01:07:00,
2013-09-22 21:08:00,52.5,46.2,30.07,East,97,0.0,3.0,79,0.00,,,0.00,Wunderground v.1.15,2013-09-23 01:08:00,
2013-09-22 21:09:00,52.4,46.1,30.07,ESE,107,2.0,3.0,79,0.00,,,0.00,Wunderground v.1.15,2013-09-23 01:09:00,
2013-09-22 21:10:00,52.4,46.1,30.07,ESE,107,2.0,2.0,79,0.00,,,0.00,Wunderground v.1.15,2013-09-23 01:10:00,
2013-09-22 21:12:00,52.2,45.9,30.07,ESE,103,0.0,5.0,79,0.00,,,0.00,Wunderground v.1.15,2013-09-23 01:12:00,
2013-09-22 21:14:00,52.1,46.1,30.07,ESE,103,3.0,5.0,80,0.00,,,0.00,Wunderground v.1.15,2013-09-23 01:14:00,
2013-09-22 21:15:00,52.1,46.1,30.07,ESE,103,3.0,5.0,80,0.00,,,0.00,Wunderground v.1.15,2013-09-23 01:15:00,
2013-09-22 21:18:00,51.9,45.9,30.07,ESE,108,0.0,5.0,80,0.00,,,0.00,Wunderground v.1.15,2013-09-23 01:18:00,
2013-09-22 21:19:00,51.9,45.9,30.07,ESE,109,3.0,5.0,80,0.00,,,0.00,Wunderground v.1.15,2013-09-23 01:19:00,
2013-09-22 21:20:00,51.8,45.8,30.07,ESE,109,2.0,2.0,80,0.00,,,0.00,Wunderground v.1.15,2013-09-23 01:20:00,
2013-09-22 21:23:00,51.7,46.1,30.07,ESE,108,1.0,3.0,81,0.00,,,0.00,Wunderground v.1.15,2013-09-23 01:23:00,
2013-09-22 21:24:00,51.7,46.1,30.07,ESE,108,0.0,3.0,81,0.00,,,0.00,Wunderground v.1.15,2013-09-23 01:24:00,
2013-09-22 21:25:00,51.6,46.0,30.07,ESE,108,0.0,3.0,81,0.00,,,0.00,Wunderground v.1.15,2013-09-23 01:25:00,
2013-09-22 21:28:00,51.4,45.8,30.07,ENE,71,2.0,4.0,81,0.00,,,0.00,Wunderground v.1.15,2013-09-23 01:28:00,
2013-09-22 21:30:00,51.4,45.8,30.07,East,96,0.0,1.0,81,0.00,,,0.00,Wunderground v.1.15,2013-09-23 01:30:00,
2013-09-22 21:32:00,51.3,46.0,30.07,East,96,0.0,2.0,82,0.00,,,0.00,Wunderground v.1.15,2013-09-23 01:32:00,
2013-09-22 21:33:00,51.2,45.9,30.07,East,96,2.0,3.0,82,0.00,,,0.00,Wunderground v.1.15,2013-09-23 01:33:00,
2013-09-22 21:35:00,51.1,45.8,30.07,East,96,0.0,3.0,82,0.00,,,0.00,Wunderground v.1.15,2013-09-23 01:35:00,
2013-09-22 21:36:00,51.1,45.8,30.07,ESE,103,1.0,3.0,82,0.00,,,0.00,Wunderground v.1.15,2013-09-23 01:36:00,
2013-09-22 21:37:00,51.0,45.7,30.07,ESE,123,1.0,3.0,82,0.00,,,0.00,Wunderground v.1.15,2013-09-23 01:37:00,
2013-09-22 21:38:00,51.0,45.7,30.07,ESE,123,0.0,3.0,82,0.00,,,0.00,Wunderground v.1.15,2013-09-23 01:38:00,
2013-09-22 21:40:00,50.9,45.9,30.07,ESE,123,0.0,1.0,83,0.00,,,0.00,Wunderground v.1.15,2013-09-23 01:40:00,
2013-09-22 21:41:00,50.8,45.8,30.07,ESE,123,0.0,1.0,83,0.00,,,0.00,Wunderground v.1.15,2013-09-23 01:41:00,
2013-09-22 21:43:00,50.7,45.7,30.07,ESE,123,0.0,1.0,83,0.00,,,0.00,Wunderground v.1.15,2013-09-23 01:43:00,
2013-09-22 21:45:00,50.6,45.6,30.07,ESE,123,0.0,1.0,83,0.00,,,0.00,Wunderground v.1.15,2013-09-23 01:45:00,
2013-09-22 21:46:00,50.5,45.5,30.07,ESE,123,0.0,2.0,83,0.00,,,0.00,Wunderground v.1.15,2013-09-23 01:46:00,
2013-09-22 21:48:00,50.5,45.5,30.07,ESE,123,0.0,2.0,83,0.00,,,0.00,Wunderground v.1.15,2013-09-23 01:48:00,
2013-09-22 21:50:00,50.4,45.7,30.08,SE,127,0.0,1.0,84,0.00,,,0.00,Wunderground v.1.15,2013-09-23 01:50:00,
2013-09-22 21:52:00,50.3,45.6,30.07,SE,127,0.0,1.0,84,0.00,,,0.00,Wunderground v.1.15,2013-09-23 01:52:00,
2013-09-22 21:53:00,50.3,45.6,30.07,SE,127,0.0,2.0,84,0.00,,,0.00,Wunderground v.1.15,2013-09-23 01:53:00,
2013-09-22 21:54:00,50.2,45.6,30.07,SE,127,2.0,2.0,84,0.00,,,0.00,Wunderground v.1.15,2013-09-23 01:54:00,
2013-09-22 21:55:00,50.2,45.6,30.07,SE,127,1.0,3.0,84,0.00,,,0.00,Wunderground v.1.15,2013-09-23 01:55:00,
2013-09-22 21:57:00,50.1,45.5,30.07,SE,127,1.0,3.0,84,0.00,,,0.00,Wunderground v.1.15,2013-09-23 01:57:00,
2013-09-22 21:58:00,50.1,45.5,30.07,SE,127,1.0,3.0,84,0.00,,,0.00,Wunderground v.1.15,2013-09-23 01:58:00,
2013-09-22 21:59:00,50.1,45.5,30.07,SE,127,0.0,3.0,84,0.00,,,0.00,Wunderground v.1.15,2013-09-23 01:59:00,
2013-09-22 22:00:00,50.0,45.4,30.07,SE,127,0.0,1.0,84,0.00,,,0.00,Wunderground v.1.15,2013-09-23 02:00:00,
2013-09-22 22:03:00,50.0,45.4,30.07,SE,127,0.0,1.0,84,0.00,,,0.00,Wunderground v.1.15,2013-09-23 02:03:00,
2013-09-22 22:04:00,49.9,45.3,30.07,SE,127,0.0,1.0,84,0.00,,,0.00,Wunderground v.1.15,2013-09-23 02:04:00,
2013-09-22 22:05:00,49.9,45.3,30.07,SE,127,1.0,1.0,84,0.00,,,0.00,Wunderground v.1.15,2013-09-23 02:05:00,
2013-09-22 22:08:00,49.8,45.2,30.07,SE,127,0.0,3.0,84,0.00,,,0.00,Wunderground v.1.15,2013-09-23 02:08:00,
2013-09-22 22:09:00,49.8,45.5,30.07,SE,127,1.0,3.0,85,0.00,,,0.00,Wunderground v.1.15,2013-09-23 02:09:00,
2013-09-22 22:10:00,49.8,45.5,30.07,SE,125,2.0,3.0,85,0.00,,,0.00,Wunderground v.1.15,2013-09-23 02:10:00,
2013-09-22 22:13:00,49.7,45.4,30.07,ESE,103,1.0,3.0,85,0.00,,,0.00,Wunderground v.1.15,2013-09-23 02:13:00,
2013-09-22 22:14:00,49.7,45.1,30.08,ESE,103,0.0,3.0,84,0.00,,,0.00,Wunderground v.1.15,2013-09-23 02:14:00,
2013-09-22 22:15:00,49.7,45.4,30.07,SE,138,0.0,3.0,85,0.00,,,0.00,Wunderground v.1.15,2013-09-23 02:15:00,
2013-09-22 22:16:00,49.7,45.4,30.07,SE,138,0.0,3.0,85,0.00,,,0.00,Wunderground v.1.15,2013-09-23 02:16:00,
2013-09-22 22:18:00,49.7,45.4,30.07,SE,138,1.0,3.0,85,0.00,,,0.00,Wunderground v.1.15,2013-09-23 02:18:00,
2013-09-22 22:19:00,49.7,45.4,30.08,SE,138,0.0,3.0,85,0.00,,,0.00,Wunderground v.1.15,2013-09-23 02:19:00,
2013-09-22 22:21:00,49.6,45.3,30.08,SE,139,1.0,2.0,85,0.00,,,0.00,Wunderground v.1.15,2013-09-23 02:21:00,
2013-09-22 22:24:00,49.6,45.3,30.07,SE,141,1.0,2.0,85,0.00,,,0.00,Wunderground v.1.15,2013-09-23 02:24:00,
2013-09-22 22:25:00,49.6,45.3,30.07,SE,141,1.0,2.0,85,0.00,,,0.00,Wunderground v.1.15,2013-09-23 02:25:00,
2013-09-22 22:26:00,49.6,45.3,30.07,SE,141,1.0,2.0,85,0.00,,,0.00,Wunderground v.1.15,2013-09-23 02:26:00,
2013-09-22 22:30:00,49.5,44.9,30.07,SE,141,1.0,2.0,84,0.00,,,0.00,Wunderground v.1.15,2013-09-23 02:30:00,
2013-09-22 22:31:00,49.5,44.9,30.07,SE,141,2.0,3.0,84,0.00,,,0.00,Wunderground v.1.15,2013-09-23 02:31:00,
2013-09-22 22:32:00,49.5,44.9,30.07,SE,141,0.0,3.0,84,0.00,,,0.00,Wunderground v.1.15,2013-09-23 02:32:00,
2013-09-22 22:35:00,49.4,44.8,30.07,SE,141,0.0,3.0,84,0.00,,,0.00,Wunderground v.1.15,2013-09-23 02:35:00,
2013-09-22 22:36:00,49.4,44.8,30.07,SE,141,0.0,3.0,84,0.00,,,0.00,Wunderground v.1.15,2013-09-23 02:36:00,
2013-09-22 22:37:00,49.4,44.8,30.07,SE,141,0.0,3.0,84,0.00,,,0.00,Wunderground v.1.15,2013-09-23 02:37:00,
2013-09-22 22:40:00,49.4,44.8,30.07,SE,141,1.0,1.0,84,0.00,,,0.00,Wunderground v.1.15,2013-09-23 02:40:00,
2013-09-22 22:41:00,49.4,44.8,30.07,SE,141,1.0,2.0,84,0.00,,,0.00,Wunderground v.1.15,2013-09-23 02:41:00,
2013-09-22 22:42:00,49.3,44.7,30.07,SE,141,1.0,2.0,84,0.00,,,0.00,Wunderground v.1.15,2013-09-23 02:42:00,
2013-09-22 22:46:00,49.3,44.7,30.07,SE,141,0.0,2.0,84,0.00,,,0.00,Wunderground v.1.15,2013-09-23 02:46:00,
2013-09-22 22:47:00,49.3,44.7,30.07,SE,141,1.0,3.0,84,0.00,,,0.00,Wunderground v.1.15,2013-09-23 02:47:00,
2013-09-22 22:51:00,49.1,44.5,30.07,SE,141,0.0,1.0,84,0.00,,,0.00,Wunderground v.1.15,2013-09-23 02:51:00,
2013-09-22 22:53:00,49.1,44.5,30.07,SE,141,0.0,2.0,84,0.00,,,0.00,Wunderground v.1.15,2013-09-23 02:53:00,
2013-09-22 22:56:00,49.0,44.7,30.07,SE,141,0.0,2.0,85,0.00,,,0.00,Wunderground v.1.15,2013-09-23 02:56:00,
2013-09-22 22:57:00,49.0,44.7,30.07,SE,141,1.0,2.0,85,0.00,,,0.00,Wunderground v.1.15,2013-09-23 02:57:00,
2013-09-22 23:00:00,48.9,44.6,30.07,SE,141,0.0,0.0,85,0.00,,,0.00,Wunderground v.1.15,2013-09-23 03:00:00,
2013-09-22 23:01:00,48.9,44.6,30.07,SE,141,0.0,2.0,85,0.00,,,0.00,Wunderground v.1.15,2013-09-23 03:01:00,
2013-09-22 23:03:00,48.8,44.5,30.07,SE,136,0.0,2.0,85,0.00,,,0.00,Wunderground v.1.15,2013-09-23 03:03:00,
2013-09-22 23:05:00,48.8,44.5,30.07,SE,136,0.0,2.0,85,0.00,,,0.00,Wunderground v.1.15,2013-09-23 03:05:00,
2013-09-22 23:06:00,48.7,44.4,30.07,SE,136,2.0,2.0,85,0.00,,,0.00,Wunderground v.1.15,2013-09-23 03:06:00,
2013-09-22 23:07:00,48.7,44.4,30.07,SE,136,0.0,2.0,85,0.00,,,0.00,Wunderground v.1.15,2013-09-23 03:07:00,
2013-09-22 23:08:00,48.7,44.4,30.07,SE,136,0.0,2.0,85,0.00,,,0.00,Wunderground v.1.15,2013-09-23 03:08:00,
2013-09-22 23:11:00,48.7,44.4,30.07,SE,136,1.0,1.0,85,0.00,,,0.00,Wunderground v.1.15,2013-09-23 03:11:00,
2013-09-22 23:12:00,48.7,44.4,30.07,SE,136,0.0,1.0,85,0.00,,,0.00,Wunderground v.1.15,2013-09-23 03:12:00,
2013-09-22 23:13:00,48.7,44.4,30.07,SE,136,0.0,1.0,85,0.00,,,0.00,Wunderground v.1.15,2013-09-23 03:13:00,
2013-09-22 23:16:00,48.6,44.3,30.07,SE,136,0.0,3.0,85,0.00,,,0.00,Wunderground v.1.15,2013-09-23 03:16:00,
2013-09-22 23:17:00,48.6,44.3,30.07,SE,136,0.0,3.0,85,0.00,,,0.00,Wunderground v.1.15,2013-09-23 03:17:00,
2013-09-22 23:19:00,48.5,44.2,30.07,SE,136,0.0,3.0,85,0.00,,,0.00,Wunderground v.1.15,2013-09-23 03:19:00,
2013-09-22 23:21:00,48.5,44.2,30.07,SE,136,1.0,4.0,85,0.00,,,0.00,Wunderground v.1.15,2013-09-23 03:21:00,
2013-09-22 23:22:00,48.4,44.1,30.07,SE,136,0.0,4.0,85,0.00,,,0.00,Wunderground v.1.15,2013-09-23 03:22:00,
2013-09-22 23:25:00,48.4,44.4,30.07,SE,136,1.0,4.0,86,0.00,,,0.00,Wunderground v.1.15,2013-09-23 03:25:00,
2013-09-22 23:26:00,48.3,44.3,30.07,SE,136,0.0,4.0,86,0.00,,,0.00,Wunderground v.1.15,2013-09-23 03:26:00,
2013-09-22 23:27:00,48.3,44.3,30.07,SE,136,0.0,4.0,86,0.00,,,0.00,Wunderground v.1.15,2013-09-23 03:27:00,
2013-09-22 23:28:00,48.3,44.3,30.07,SE,136,0.0,4.0,86,0.00,,,0.00,Wunderground v.1.15,2013-09-23 03:28:00,
2013-09-22 23:30:00,48.2,44.2,30.07,SE,136,0.0,0.0,86,0.00,,,0.00,Wunderground v.1.15,2013-09-23 03:30:00,
2013-09-22 23:31:00,48.2,44.2,30.07,SE,136,0.0,0.0,86,0.00,,,0.00,Wunderground v.1.15,2013-09-23 03:31:00,
2013-09-22 23:32:00,48.2,44.2,30.07,SE,136,1.0,1.0,86,0.00,,,0.00,Wunderground v.1.15,2013-09-23 03:32:00,
2013-09-22 23:33:00,48.1,44.1,30.08,SE,136,0.0,1.0,86,0.00,,,0.00,Wunderground v.1.15,2013-09-23 03:33:00,
2013-09-22 23:36:00,48.0,44.3,30.08,SE,136,0.0,1.0,87,0.00,,,0.00,Wunderground v.1.15,2013-09-23 03:36:00,
2013-09-22 23:37:00,48.0,44.3,30.08,SE,136,0.0,1.0,87,0.00,,,0.00,Wunderground v.1.15,2013-09-23 03:37:00,
2013-09-22 23:38:00,48.0,44.3,30.08,SE,136,0.0,1.0,87,0.00,,,0.00,Wunderground v.1.15,2013-09-23 03:38:00,
2013-09-22 23:41:00,47.8,44.1,30.08,SE,136,0.0,0.0,87,0.00,,,0.00,Wunderground v.1.15,2013-09-23 03:41:00,
2013-09-22 23:42:00,47.8,44.1,30.08,SE,136,0.0,0.0,87,0.00,,,0.00,Wunderground v.1.15,2013-09-23 03:42:00,
2013-09-22 23:43:00,47.8,44.1,30.08,SE,136,0.0,0.0,87,0.00,,,0.00,Wunderground v.1.15,2013-09-23 03:43:00,
2013-09-22 23:46:00,47.6,43.9,30.08,SE,136,0.0,0.0,87,0.00,,,0.00,Wunderground v.1.15,2013-09-23 03:46:00,
2013-09-22 23:47:00,47.6,43.9,30.08,SE,136,0.0,0.0,87,0.00,,,0.00,Wunderground v.1.15,2013-09-23 03:47:00,
2013-09-22 23:49:00,47.6,43.9,30.08,SE,136,1.0,2.0,87,0.00,,,0.00,Wunderground v.1.15,2013-09-23 03:49:00,
2013-09-22 23:52:00,47.4,44.0,30.08,SE,136,0.0,1.0,88,0.00,,,0.00,Wunderground v.1.15,2013-09-23 03:52:00,
2013-09-22 23:53:00,47.4,44.0,30.08,SE,136,0.0,1.0,88,0.00,,,0.00,Wunderground v.1.15,2013-09-23 03:53:00,
2013-09-22 23:54:00,47.4,44.0,30.08,SE,136,0.0,1.0,88,0.00,,,0.00,Wunderground v.1.15,2013-09-23 03:54:00,
2013-09-22 23:57:00,47.3,43.9,30.08,SE,136,2.0,2.0,88,0.00,,,0.00,Wunderground v.1.15,2013-09-23 03:57:00,
2013-09-22 23:58:00,47.3,43.9,30.08,SE,136,0.0,2.0,88,0.00,,,0.00,Wunderground v.1.15,2013-09-23 03:58:00,